FW4770 Weather Reports


time (UTC)temp
F
wind
direction
speed
knots
gust
knots
rain 1hr
in
rain 24hr
in
rain mn
in
humidity
%
barometer
mb
20260904110259 70 126 0.9 4.3 0.00 0.00 0.00 96 1011.0
20260904110208 70 126 2.6 4.3 0.00 0.00 0.00 96 1011.0
20260904110113 70 126 3.5 6.1 0.00 0.00 0.00 96 1011.1
20260904105958 70 126 3.5 6.1 0.00 0.00 0.00 96 1011.1
20260904105902 70 113 3.5 6.1 0.00 0.00 0.00 96 1011.2
20260904105807 70 138 2.6 6.1 0.00 0.00 0.00 96 1011.2
20260904105656 70 146 1.7 6.1 0.00 0.00 0.00 96 1011.1
20260904105601 70 148 1.7 6.1 0.00 0.00 0.00 96 1011.1
20260904105505 70 148 1.7 6.1 0.00 0.00 0.00 96 1011.1
20260904105410 70 152 2.6 6.1 0.00 0.00 0.00 96 1011.1
20260904105315 70 153 3.5 6.1 0.00 0.00 0.00 96 1011.1
20260904105220 70 132 2.6 4.3 0.00 0.00 0.00 96 1011.1
20260904105104 70 134 2.6 4.3 0.00 0.00 0.00 96 1011.1
20260904105012 70 132 2.6 4.3 0.00 0.00 0.00 96 1011.1
20260904104915 70 132 2.6 6.1 0.00 0.00 0.00 96 1011.1
20260904104800 70 134 2.6 7.8 0.00 0.00 0.00 96 1011.0
20260904104705 70 131 2.6 7.8 0.00 0.00 0.00 96 1011.0
20260904104610 70 143 1.7 7.8 0.00 0.00 0.00 96 1011.0
20260904104515 70 107 0.9 7.8 0.00 0.00 0.00 96 1011.0
20260904104403 70 107 1.7 7.8 0.00 0.00 0.00 96 1011.1
20260904104308 70 107 2.6 7.8 0.00 0.00 0.00 96 1011.1
20260904104213 70 106 3.5 7.8 0.00 0.00 0.00 96 1011.1
20260904104118 70 128 5.2 7.8 0.00 0.00 0.00 96 1011.1
20260904104001 70 120 4.3 9.6 0.00 0.00 0.00 96 1011.1
20260904103925 70 117 3.5 9.6 0.00 0.00 0.00 96 1011.1
20260904103829 70 119 2.6 9.6 0.00 0.00 0.00 96 1011.1
20260904103717 71 112 2.6 9.6 0.00 0.00 0.00 96 1011.1
20260904103642 71 136 2.6 9.6 0.00 0.00 0.00 96 1011.0
20260904103458 71 135 3.5 9.6 0.00 0.00 0.00 96 1011.1
20260904103404 71 139 5.2 9.6 0.00 0.00 0.00 96 1011.1
20260904103329 71 108 5.2 10.4 0.00 0.00 0.00 96 1011.1
20260904103212 71 141 4.3 10.4 0.00 0.00 0.00 96 1011.1
20260904103058 71 122 3.5 10.4 0.00 0.00 0.00 96 1011.1
20260904103007 71 127 3.5 10.4 0.00 0.00 0.00 96 1011.1
20260904102911 71 115 3.5 10.4 0.00 0.00 0.00 96 1011.1
20260904102836 71 108 3.5 10.4 0.00 0.00 0.00 96 1011.1
20260904102719 71 117 4.3 10.4 0.00 0.00 0.00 96 1011.1
20260904102556 71 110 6.1 10.4 0.00 0.00 0.00 96 1011.2
20260904102501 71 113 4.3 10.4 0.00 0.00 0.00 96 1011.1
20260904102425 71 109 3.5 6.1 0.00 0.00 0.00 96 1011.1
20260904102313 71 143 3.5 6.1 0.00 0.00 0.00 96 1011.1
20260904102238 71 144 3.5 6.1 0.00 0.00 0.00 96 1011.0
20260904102142 71 169 3.5 6.1 0.00 0.00 0.00 96 1011.0
20260904101959 71 136 3.5 6.1 0.00 0.00 0.00 96 1011.0
20260904101903 72 160 3.5 6.1 0.00 0.00 0.00 96 1011.0
20260904101809 72 185 3.5 6.1 0.00 0.00 0.00 96 1011.0
20260904101657 72 127 3.5 6.1 0.00 0.00 0.00 96 1011.0
20260904101601 72 126 3.5 7.0 0.00 0.00 0.00 96 1011.0
20260904101506 72 121 3.5 7.0 0.00 0.00 0.00 96 1011.0
20260904101430 72 130 2.6 7.0 0.00 0.00 0.00 96 1010.9
20260904101334 72 132 2.6 7.0 0.00 0.00 0.00 96 1011.0
20260904101219 72 157 2.6 7.0 0.00 0.00 0.00 96 1010.9
20260904101056 72 157 1.7 7.0 0.00 0.00 0.00 96 1010.9
20260904101004 72 157 3.5 7.0 0.00 0.00 0.00 96 1010.9
20260904100909 72 116 4.3 7.0 0.00 0.00 0.00 96 1010.9
20260904100813 72 131 5.2 7.0 0.00 0.00 0.00 96 1011.0
20260904100658 72 103 5.2 7.0 0.00 0.00 0.00 96 1011.0
20260904100603 72 119 4.3 7.0 0.00 0.00 0.00 96 1011.0
20260904100507 72 117 2.6 6.1 0.00 0.00 0.00 96 1011.0
20260904100412 72 133 2.6 7.0 0.00 0.00 0.00 96 1010.9
20260904100322 72 132 3.5 7.0 0.00 0.00 0.00 96 1011.0
20260904100159 72 121 2.6 7.0 0.00 0.00 0.00 96 1010.9
20260904100104 72 160 2.6 7.0 0.00 0.00 0.00 97 1010.9
20260904100008 72 163 2.6 7.0 0.00 0.00 0.00 97 1010.9
20260904095909 72 155 1.7 7.0 0.00 0.00 0.00 97 1010.9
20260904095834 72 151 1.7 7.0 0.00 0.00 0.00 97 1010.9
20260904095702 72 137 4.3 7.0 0.00 0.00 0.00 97 1011.0
20260904095606 72 136 5.2 7.0 0.00 0.00 0.00 97 1011.0
20260904095510 72 126 4.3 7.0 0.00 0.00 0.00 97 1011.0
20260904095436 72 124 4.3 7.0 0.00 0.00 0.00 97 1011.1
20260904095319 72 116 3.5 5.2 0.00 0.00 0.00 97 1011.1
20260904095157 72 133 2.6 5.2 0.00 0.00 0.00 97 1011.0
20260904095102 72 183 1.7 6.1 0.00 0.00 0.00 97 1010.9
20260904095010 72 184 2.6 6.1 0.00 0.00 0.00 97 1010.9
20260904094856 72 184 2.6 6.1 0.00 0.00 0.00 97 1010.8
20260904094821 72 183 2.6 6.1 0.00 0.00 0.00 97 1010.8
20260904094658 72 160 1.7 6.1 0.00 0.00 0.00 97 1010.9
20260904094603 72 117 1.7 6.1 0.00 0.00 0.00 97 1011.0
20260904094526 72 115 2.6 6.1 0.00 0.00 0.00 96 1011.1
20260904094413 72 116 3.5 6.1 0.00 0.00 0.00 96 1011.1
20260904094319 72 117 4.3 6.1 0.00 0.00 0.00 96 1011.1
20260904094156 72 107 3.5 6.1 0.00 0.00 0.00 97 1011.1
20260904094101 72 114 2.6 3.5 0.00 0.00 0.00 96 1011.0
20260904094007 72 110 1.7 3.5 0.00 0.00 0.00 96 1011.0
20260904093931 72 110 0.9 5.2 0.00 0.00 0.00 96 1011.0
20260904093759 72 110 0.9 5.2 0.00 0.00 0.00 96 1010.9
20260904093704 72 110 0.9 5.2 0.00 0.00 0.00 96 1010.9
20260904093609 72 110 0.9 5.2 0.00 0.00 0.00 96 1010.9
20260904093514 72 110 0.9 5.2 0.00 0.00 0.00 96 1010.9
20260904093357 72 110 1.7 5.2 0.00 0.00 0.00 96 1011.0
20260904093302 72 110 2.6 5.2 0.00 0.00 0.00 96 1011.1
20260904093207 72 110 3.5 5.2 0.00 0.00 0.00 96 1011.1
20260904093136 72 111 3.5 5.2 0.00 0.00 0.00 96 1011.1
20260904092959 72 113 2.6 5.2 0.00 0.00 0.00 96 1011.2
20260904092924 72 117 2.6 5.2 0.00 0.00 0.00 96 1011.1
20260904092808 72 108 2.6 5.2 0.00 0.00 0.00 96 1011.1
20260904092713 72 107 2.6 5.2 0.00 0.00 0.00 96 1011.1
20260904092557 72 107 1.7 3.5 0.00 0.00 0.00 96 1011.1
20260904092507 72 107 0.9 3.5 0.00 0.00 0.00 96 1011.1
20260904092432 72 107 0.9 5.2 0.00 0.00 0.00 96 1011.0
20260904092315 72 107 0.0 5.2 0.00 0.00 0.00 96 1011.0
20260904092240 72 107 0.0 5.2 0.00 0.00 0.00 96 1010.9
20260904092057 72 107 0.0 5.2 0.00 0.00 0.00 96 1010.9
20260904092002 72 107 0.9 5.2 0.00 0.00 0.00 96 1011.0
20260904091907 72 107 1.7 5.2 0.00 0.00 0.00 96 1011.0
20260904091756 72 107 2.6 5.2 0.00 0.00 0.00 96 1011.2
20260904091721 72 107 3.5 5.2 0.00 0.00 0.00 96 1011.2
20260904091558 72 111 3.5 5.2 0.00 0.00 0.00 96 1011.2
20260904091504 72 103 3.5 6.1 0.00 0.00 0.00 96 1011.1
20260904091408 72 114 2.6 7.0 0.00 0.00 0.00 96 1011.0
20260904091308 72 144 0.9 7.8 0.00 0.00 0.00 96 1011.0
20260904091156 72 145 0.9 7.8 0.00 0.00 0.00 96 1010.9
20260904091121 72 145 1.7 7.8 0.00 0.00 0.00 96 1010.8
20260904091005 72 145 1.7 7.8 0.00 0.00 0.00 96 1010.9
20260904090907 72 119 2.6 7.8 0.00 0.00 0.00 96 1010.9
20260904090812 72 115 2.6 7.8 0.00 0.00 0.00 96 1010.9
20260904090658 72 119 4.3 7.8 0.00 0.00 0.00 96 1011.1
20260904090623 72 98 5.2 7.8 0.00 0.00 0.00 96 1011.1
20260904090511 72 78 6.1 7.8 0.00 0.00 0.00 96 1011.1
20260904090355 72 96 5.2 7.8 0.00 0.00 0.00 96 1011.1
20260904090319 72 94 3.5 8.7 0.00 0.00 0.00 96 1011.1
20260904090156 72 117 1.7 11.3 0.00 0.00 0.00 96 1010.9
20260904090120 72 117 0.0 11.3 0.00 0.00 0.00 95 1010.9
20260904090023 72 117 0.0 11.3 0.00 0.00 0.00 95 1010.8
20260904085905 72 117 0.9 11.3 0.00 0.00 0.00 95 1010.8
20260904085814 72 117 2.6 11.3 0.00 0.00 0.00 95 1010.8
20260904085721 72 117 4.3 11.3 0.00 0.00 0.00 95 1010.8
20260904085559 72 112 6.1 11.3 0.00 0.00 0.00 95 1010.9
20260904085504 72 82 7.8 11.3 0.00 0.00 0.00 95 1010.9
20260904085409 72 80 7.8 11.3 0.00 0.00 0.00 96 1010.9
20260904085313 72 80 7.0 9.6 0.00 0.00 0.00 95 1010.8
20260904085242 72 85 6.1 7.8 0.00 0.00 0.00 96 1010.9
20260904085058 72 104 4.3 6.1 0.00 0.00 0.00 95 1010.7
20260904085003 72 117 3.5 5.2 0.00 0.00 0.00 95 1010.6
20260904084927 72 129 3.5 4.3 0.00 0.00 0.00 95 1010.6
20260904084831 72 159 2.6 4.3 0.00 0.00 0.00 95 1010.5
20260904084656 72 197 1.7 2.6 0.00 0.00 0.00 95 1010.4
20260904084600 72 217 0.9 2.6 0.00 0.00 0.00 95 1010.4
20260904084530 72 217 0.9 1.7 0.00 0.00 0.00 95 1010.4
20260904084414 72 217 0.0 1.7 0.00 0.00 0.00 95 1010.4
20260904084318 72 217 0.0 1.7 0.00 0.00 0.00 96 1010.4
20260904084202 72 217 0.0 2.6 0.00 0.00 0.00 96 1010.3
20260904084106 72 217 0.0 2.6 0.00 0.00 0.00 96 1010.3
20260904084010 73 217 0.0 2.6 0.00 0.00 0.00 95 1010.3
20260904083859 72 217 0.0 2.6 0.00 0.00 0.00 95 1010.2
20260904083804 72 217 0.9 2.6 0.00 0.00 0.00 95 1010.2
20260904083709 72 217 0.9 2.6 0.00 0.00 0.00 95 1010.2
20260904083633 73 217 0.9 2.6 0.00 0.00 0.00 95 1010.2
20260904083457 72 217 1.7 2.6 0.00 0.00 0.00 95 1010.2
20260904083402 72 217 1.7 3.5 0.00 0.00 0.00 95 1010.2
20260904083327 72 217 1.7 3.5 0.00 0.00 0.00 95 1010.2
20260904083231 72 217 1.7 3.5 0.00 0.00 0.00 95 1010.1
20260904083119 73 217 1.7 3.5 0.00 0.00 0.00 95 1010.1
20260904082956 73 217 1.7 3.5 0.00 0.00 0.00 95 1010.1
20260904082901 73 217 1.7 3.5 0.00 0.00 0.00 95 1010.2
20260904082807 73 217 1.7 3.5 0.00 0.00 0.00 95 1010.2
20260904082712 73 218 1.7 3.5 0.00 0.00 0.00 95 1010.2
20260904082600 73 218 1.7 3.5 0.00 0.00 0.00 95 1010.2
20260904082506 73 218 1.7 3.5 0.00 0.00 0.00 95 1010.2
20260904082411 73 218 1.7 3.5 0.00 0.00 0.00 95 1010.1
20260904082256 73 218 1.7 3.5 0.00 0.00 0.00 95 1010.1
20260904082200 73 218 1.7 3.5 0.00 0.00 0.00 95 1010.2
20260904082105 73 218 2.6 3.5 0.00 0.00 0.00 95 1010.2
20260904082014 73 218 1.7 3.5 0.00 0.00 0.00 95 1010.1
20260904081919 73 218 2.6 3.5 0.00 0.00 0.00 95 1010.1
20260904081756 72 218 2.6 3.5 0.00 0.00 0.00 95 1010.1
20260904081722 72 218 2.6 3.5 0.00 0.00 0.00 95 1010.1
20260904081606 72 218 2.6 3.5 0.00 0.00 0.00 95 1010.1
20260904081530 72 218 2.6 3.5 0.00 0.00 0.00 95 1010.2
20260904081434 72 218 2.6 2.6 0.00 0.00 0.00 95 1010.2
20260904081319 72 218 2.6 2.6 0.00 0.00 0.00 94 1010.2
20260904081206 72 218 2.6 2.6 0.00 0.00 0.00 94 1010.2
20260904081131 72 218 1.7 2.6 0.00 0.00 0.00 94 1010.2
20260904080956 72 218 1.7 2.6 0.00 0.00 0.00 94 1010.2
20260904080921 72 218 1.7 2.6 0.00 0.00 0.00 94 1010.1
20260904080805 72 218 1.7 2.6 0.00 0.00 0.00 94 1010.2
20260904080709 72 218 1.7 2.6 0.00 0.00 0.00 94 1010.2
20260904080634 72 218 1.7 2.6 0.00 0.00 0.00 94 1010.2
20260904080522 72 218 1.7 2.6 0.00 0.00 0.00 94 1010.3
20260904080358 72 218 1.7 2.6 0.00 0.00 0.00 94 1010.2
20260904080304 72 218 1.7 1.7 0.00 0.00 0.00 94 1010.2
20260904080206 72 218 1.7 1.7 0.00 0.00 0.00 94 1010.2
20260904080110 72 218 0.9 1.7 0.00 0.00 0.00 94 1010.2
20260904075956 73 218 0.9 2.6 0.00 0.00 0.00 94 1010.2
20260904075920 73 218 1.7 2.6 0.00 0.00 0.00 94 1010.2
20260904075807 73 218 0.9 2.6 0.00 0.00 0.00 94 1010.2
20260904075713 73 218 0.9 2.6 0.00 0.00 0.00 94 1010.3
20260904075557 73 218 0.9 2.6 0.00 0.00 0.00 94 1010.3
20260904075503 72 218 0.9 2.6 0.00 0.00 0.00 94 1010.2
20260904075407 73 218 1.7 2.6 0.00 0.00 0.00 94 1010.2
20260904075333 73 218 0.9 2.6 0.00 0.00 0.00 93 1010.2
20260904075201 73 218 1.7 2.6 0.00 0.00 0.00 93 1010.2
20260904075106 73 218 1.7 2.6 0.00 0.00 0.00 93 1010.2
20260904075010 73 218 1.7 2.6 0.00 0.00 0.00 93 1010.2
20260904074934 73 218 1.7 2.6 0.00 0.00 0.00 94 1010.1
20260904074817 73 218 1.7 2.6 0.00 0.00 0.00 94 1010.2
20260904074742 73 218 0.9 2.6 0.00 0.00 0.00 94 1010.2
20260904074558 73 218 0.9 2.6 0.00 0.00 0.00 94 1010.2
20260904074508 73 218 0.9 2.6 0.00 0.00 0.00 94 1010.2
20260904074412 73 218 0.9 3.5 0.00 0.00 0.00 94 1010.1
20260904074258 73 218 0.9 3.5 0.00 0.00 0.00 94 1010.1
20260904074203 73 218 0.9 3.5 0.00 0.00 0.00 94 1010.1
20260904074107 73 218 0.9 3.5 0.00 0.00 0.00 94 1010.1
20260904074033 73 218 1.7 3.5 0.00 0.00 0.00 94 1010.2
20260904073900 73 218 2.6 3.5 0.00 0.00 0.00 94 1010.1
20260904073806 73 218 2.6 3.5 0.00 0.00 0.00 94 1010.1
20260904073730 73 218 2.6 3.5 0.00 0.00 0.00 94 1010.2
20260904073615 73 218 2.6 3.5 0.00 0.00 0.00 94 1010.1
20260904073519 73 219 2.6 3.5 0.00 0.00 0.00 94 1010.2
20260904073357 73 219 2.6 2.6 0.00 0.00 0.00 94 1010.2
20260904073305 73 219 1.7 2.6 0.00 0.00 0.00 93 1010.2
20260904073211 73 219 1.7 3.5 0.00 0.00 0.00 93 1010.3
20260904073115 73 219 1.7 3.5 0.00 0.00 0.00 93 1010.2
20260904072959 73 219 1.7 3.5 0.00 0.00 0.00 93 1010.2
20260904072924 73 219 1.7 3.5 0.00 0.00 0.00 93 1010.3
20260904072808 73 219 1.7 3.5 0.00 0.00 0.00 93 1010.3
20260904072656 73 219 1.7 3.5 0.00 0.00 0.00 93 1010.2
20260904072601 73 219 1.7 3.5 0.00 0.00 0.00 93 1010.2
20260904072506 74 219 2.6 3.5 0.00 0.00 0.00 93 1010.2
20260904072410 74 219 1.7 3.5 0.00 0.00 0.00 93 1010.3
20260904072335 74 220 1.7 2.6 0.00 0.00 0.00 93 1010.2
20260904072219 74 220 2.6 2.6 0.00 0.00 0.00 93 1010.3
20260904072103 74 219 2.6 3.5 0.00 0.00 0.00 93 1010.2
20260904072013 74 220 2.6 3.5 0.00 0.00 0.00 93 1010.2
20260904071857 74 220 2.6 3.5 0.00 0.00 0.00 93 1010.2
20260904071803 74 220 1.7 4.3 0.00 0.00 0.00 93 1010.3
20260904071707 74 220 1.7 4.3 0.00 0.00 0.00 93 1010.3
20260904071612 74 220 1.7 4.3 0.00 0.00 0.00 93 1010.2
20260904071457 74 220 1.7 4.3 0.00 0.00 0.00 93 1010.2
20260904071425 74 221 2.6 4.3 0.00 0.00 0.00 93 1010.2
20260904071310 74 221 2.6 4.3 0.00 0.00 0.00 93 1010.2
20260904071235 74 221 2.6 4.3 0.00 0.00 0.00 93 1010.2
20260904071119 74 221 2.6 4.3 0.00 0.00 0.00 93 1010.1
20260904071003 74 221 2.6 4.3 0.00 0.00 0.00 93 1010.2
20260904070907 74 221 2.6 4.3 0.00 0.00 0.00 93 1010.2
20260904070812 74 221 2.6 4.3 0.00 0.00 0.00 93 1010.2
20260904070721 74 221 2.6 4.3 0.00 0.00 0.00 93 1010.1
20260904070558 74 221 2.6 4.3 0.00 0.00 0.00 93 1010.2
20260904070524 74 221 2.6 4.3 0.00 0.00 0.00 93 1010.2
20260904070407 74 221 2.6 4.3 0.00 0.00 0.00 93 1010.2
20260904070313 74 221 2.6 5.2 0.00 0.00 0.00 93 1010.2
20260904070158 74 221 3.5 5.2 0.00 0.00 0.00 93 1010.2
20260904070106 74 221 3.5 5.2 0.00 0.00 0.00 93 1010.2
20260904070011 74 219 3.5 5.2 0.00 0.00 0.00 93 1010.2
20260904065936 74 234 3.5 5.2 0.00 0.00 0.00 93 1010.2
20260904065800 74 216 3.5 5.2 0.00 0.00 0.00 93 1010.3
20260904065704 74 216 3.5 5.2 0.00 0.00 0.00 93 1010.3
20260904065628 74 215 3.5 5.2 0.00 0.00 0.00 93 1010.3
20260904065512 74 216 3.5 5.2 0.00 0.00 0.00 93 1010.3
20260904065401 74 223 3.5 5.2 0.00 0.00 0.00 93 1010.3
20260904065307 74 224 3.5 5.2 0.00 0.00 0.00 93 1010.3
20260904065210 74 221 3.5 4.3 0.00 0.00 0.00 93 1010.2
20260904065056 74 224 3.5 4.3 0.00 0.00 0.00 93 1010.4
20260904065020 74 224 2.6 4.3 0.00 0.00 0.00 93 1010.4
20260904064859 74 224 2.6 4.3 0.00 0.00 0.00 93 1010.4
20260904064807 74 224 2.6 4.3 0.00 0.00 0.00 93 1010.4
20260904064712 74 224 2.6 4.3 0.00 0.00 0.00 93 1010.4
20260904064616 74 223 2.6 4.3 0.00 0.00 0.00 93 1010.3
20260904064542 74 224 2.6 4.3 0.00 0.00 0.00 93 1010.4
20260904064358 74 224 2.6 4.3 0.00 0.00 0.00 93 1010.4
20260904064304 74 225 3.5 4.3 0.00 0.00 0.00 93 1010.2
20260904064212 74 225 3.5 4.3 0.00 0.00 0.00 93 1010.2
20260904064136 74 205 2.6 4.3 0.00 0.00 0.00 93 1010.3
20260904064019 74 205 2.6 4.3 0.00 0.00 0.00 93 1010.3
20260904063856 74 202 2.6 3.5 0.00 0.00 0.00 93 1010.3
20260904063821 74 202 2.6 4.3 0.00 0.00 0.00 93 1010.3
20260904063704 74 202 2.6 4.3 0.00 0.00 0.00 93 1010.3
20260904063608 74 202 2.6 4.3 0.00 0.00 0.00 93 1010.3
20260904063458 74 202 2.6 4.3 0.00 0.00 0.00 93 1010.4
20260904063402 74 202 2.6 6.1 0.00 0.00 0.00 92 1010.4
20260904063327 74 202 2.6 6.1 0.00 0.00 0.00 92 1010.4
20260904063211 74 202 2.6 6.1 0.00 0.00 0.00 92 1010.4
20260904063116 74 201 3.5 6.1 0.00 0.00 0.00 92 1010.4
20260904063040 74 200 2.6 6.1 0.00 0.00 0.00 92 1010.4
20260904062857 74 200 2.6 6.1 0.00 0.00 0.00 93 1010.4
20260904062805 74 200 3.5 6.1 0.00 0.00 0.00 93 1010.4
20260904062711 74 199 3.5 6.1 0.00 0.00 0.00 92 1010.4
20260904062614 74 198 3.5 6.1 0.00 0.00 0.00 92 1010.4
20260904062459 74 212 3.5 5.2 0.00 0.00 0.00 93 1010.4
20260904062405 74 213 3.5 5.2 0.00 0.00 0.00 92 1010.5
20260904062309 74 211 3.5 5.2 0.00 0.00 0.00 93 1010.5
20260904062158 74 213 3.5 5.2 0.00 0.00 0.00 92 1010.4
20260904062104 74 211 3.5 4.3 0.00 0.00 0.00 92 1010.4
20260904062008 74 211 3.5 4.3 0.00 0.00 0.00 92 1010.4
20260904061913 74 194 3.5 4.3 0.00 0.00 0.00 92 1010.4
20260904061817 74 194 3.5 4.3 0.00 0.00 0.00 92 1010.3
20260904061701 74 192 3.5 4.3 0.00 0.00 0.00 92 1010.3
20260904061610 74 192 2.6 4.3 0.00 0.00 0.00 92 1010.3
20260904061515 74 184 2.6 4.3 0.00 0.00 0.00 92 1010.4
20260904061359 74 184 2.6 4.3 0.00 0.00 0.00 92 1010.4
20260904061304 74 184 2.6 4.3 0.00 0.00 0.00 92 1010.5
20260904061210 74 182 2.6 4.3 0.00 0.00 0.00 91 1010.5
20260904061114 74 182 2.6 4.3 0.00 0.00 0.00 91 1010.5
20260904061022 74 182 2.6 4.3 0.00 0.00 0.00 91 1010.5
20260904060906 74 182 2.6 4.3 0.00 0.00 0.00 91 1010.5
20260904060811 74 182 3.5 4.3 0.00 0.00 0.00 91 1010.5
20260904060656 74 182 3.5 4.3 0.00 0.00 0.00 92 1010.5
20260904060621 75 182 3.5 4.3 0.00 0.00 0.00 92 1010.5
20260904060457 74 180 2.6 4.3 0.00 0.00 0.00 92 1010.5
20260904060406 75 180 2.6 4.3 0.00 0.00 0.00 92 1010.5
20260904060331 75 177 2.6 4.3 0.00 0.00 0.00 92 1010.5
20260904060235 75 176 2.6 4.3 0.00 0.00 0.00 92 1010.5
20260904060059 75 176 2.6 4.3 0.00 0.00 0.00 92 1010.6
20260904060004 75 177 1.7 4.3 0.00 0.00 0.00 92 1010.4
20260904055909 75 176 1.7 4.3 0.00 0.00 0.00 92 1010.4
20260904055814 74 176 1.7 4.3 0.00 0.00 0.00 92 1010.5
20260904055703 74 176 2.6 4.3 0.00 0.00 0.00 92 1010.4
20260904055609 74 175 1.7 4.3 0.00 0.00 0.00 92 1010.4
20260904055533 74 175 1.7 4.3 0.00 0.00 0.00 92 1010.5
20260904055357 74 189 2.6 4.3 0.00 0.00 0.00 92 1010.5
20260904055301 74 190 2.6 4.3 0.00 0.00 0.00 92 1010.5
20260904055206 74 194 1.7 4.3 0.00 0.00 0.00 92 1010.5
20260904055056 74 194 2.6 4.3 0.00 0.00 0.00 92 1010.5
20260904055021 74 195 2.6 4.3 0.00 0.00 0.00 92 1010.5
20260904054904 74 195 2.6 4.3 0.00 0.00 0.00 92 1010.4
20260904054809 74 196 2.6 6.1 0.00 0.00 0.00 92 1010.4
20260904054734 74 200 3.5 6.1 0.00 0.00 0.00 92 1010.4
20260904054618 74 200 3.5 6.1 0.00 0.00 0.00 91 1010.4
20260904054456 74 200 2.6 6.1 0.00 0.00 0.00 91 1010.5
20260904054404 74 200 2.6 6.1 0.00 0.00 0.00 91 1010.5
20260904054309 74 200 3.5 6.1 0.00 0.00 0.00 91 1010.5
20260904054213 74 200 3.5 6.1 0.00 0.00 0.00 91 1010.4
20260904054057 74 198 4.3 6.1 0.00 0.00 0.00 91 1010.3
20260904054002 74 198 4.3 6.1 0.00 0.00 0.00 91 1010.3
20260904053907 74 199 4.3 6.1 0.00 0.00 0.00 91 1010.3
20260904053757 75 198 4.3 6.1 0.00 0.00 0.00 91 1010.4
20260904053701 75 186 4.3 6.1 0.00 0.00 0.00 91 1010.3
20260904053627 75 186 4.3 6.1 0.00 0.00 0.00 90 1010.3
20260904053531 75 182 4.3 6.1 0.00 0.00 0.00 90 1010.3
20260904053414 75 186 3.5 4.3 0.00 0.00 0.00 90 1010.4
20260904053259 75 185 3.5 4.3 0.00 0.00 0.00 90 1010.4
20260904053203 75 185 3.5 4.3 0.00 0.00 0.00 90 1010.4
20260904053112 75 185 3.5 4.3 0.00 0.00 0.00 90 1010.4
20260904052957 75 184 2.6 4.3 0.00 0.00 0.00 90 1010.5
20260904052903 75 184 2.6 4.3 0.00 0.00 0.00 91 1010.4
20260904052807 75 184 1.7 4.3 0.00 0.00 0.00 91 1010.4
20260904052712 75 182 1.7 6.1 0.00 0.00 0.00 91 1010.5
20260904052601 75 182 1.7 6.1 0.00 0.00 0.00 91 1010.5
20260904052506 75 182 1.7 6.1 0.00 0.00 0.00 91 1010.5
20260904052411 75 181 1.7 6.1 0.00 0.00 0.00 91 1010.5
20260904052256 75 181 2.6 7.0 0.00 0.00 0.00 90 1010.4
20260904052201 75 181 3.5 7.8 0.00 0.00 0.00 90 1010.4
20260904052125 75 193 3.5 7.8 0.00 0.00 0.00 90 1010.4
20260904052009 75 199 4.3 7.8 0.00 0.00 0.00 90 1010.4
20260904051937 75 201 4.3 7.8 0.00 0.00 0.00 90 1010.4
20260904051841 75 194 4.3 7.8 0.00 0.00 0.00 90 1010.4
20260904051658 75 200 5.2 7.8 0.00 0.00 0.00 90 1010.5
20260904051604 75 196 5.2 7.8 0.00 0.00 0.00 90 1010.4
20260904051508 75 209 5.2 7.8 0.00 0.00 0.00 90 1010.4
20260904051413 75 200 5.2 7.8 0.00 0.00 0.00 90 1010.4
20260904051301 75 194 4.3 7.8 0.00 0.00 0.00 90 1010.3
20260904051225 75 204 3.5 6.1 0.00 0.00 0.00 90 1010.4
20260904051109 75 212 2.6 6.1 0.00 0.00 0.00 90 1010.4
20260904051014 75 212 2.6 6.1 0.00 0.00 0.00 90 1010.4
20260904050859 75 212 3.5 6.1 0.00 0.00 0.00 90 1010.4
20260904050804 75 213 3.5 6.1 0.00 0.00 0.00 90 1010.4
20260904050709 75 213 4.3 6.1 0.00 0.00 0.00 90 1010.4
20260904050558 75 198 4.3 6.1 0.00 0.00 0.00 90 1010.4
20260904050503 75 202 4.3 6.1 0.00 0.00 0.00 90 1010.3
20260904050408 75 201 4.3 6.1 0.00 0.00 0.00 89 1010.3
20260904050312 75 199 4.3 6.1 0.00 0.00 0.00 89 1010.4
20260904050217 75 187 4.3 6.1 0.00 0.00 0.00 89 1010.4
20260904050100 75 173 4.3 6.1 0.00 0.00 0.00 89 1010.3
20260904050008 75 190 4.3 6.1 0.00 0.00 0.00 89 1010.3
20260904045914 75 186 4.3 5.2 0.00 0.00 0.00 89 1010.3
20260904045819 75 167 3.5 5.2 0.00 0.00 0.00 89 1010.4
20260904045702 75 182 2.6 5.2 0.00 0.00 0.00 89 1010.4
20260904045625 76 172 2.6 3.5 0.00 0.00 0.00 89 1010.4
20260904045529 76 172 2.6 4.3 0.00 0.00 0.00 89 1010.4
20260904045413 76 169 2.6 4.3 0.00 0.00 0.00 89 1010.4
20260904045322 76 169 2.6 4.3 0.00 0.00 0.00 89 1010.3
20260904045226 76 170 2.6 4.3 0.00 0.00 0.00 89 1010.3
20260904045110 76 171 2.6 4.3 0.00 0.00 0.00 89 1010.3
20260904045014 76 171 1.7 4.3 0.00 0.00 0.00 89 1010.4
20260904044919 76 171 0.9 4.3 0.00 0.00 0.00 88 1010.4
20260904044803 76 171 0.9 4.3 0.00 0.00 0.00 88 1010.3
20260904044708 76 171 1.7 4.3 0.00 0.00 0.00 88 1010.4
20260904044616 76 171 1.7 4.3 0.00 0.00 0.00 88 1010.4
20260904044500 76 171 1.7 4.3 0.00 0.00 0.00 88 1010.4
20260904044405 76 171 2.6 4.3 0.00 0.00 0.00 88 1010.4
20260904044309 76 173 3.5 5.2 0.00 0.00 0.00 88 1010.4
20260904044215 76 173 3.5 5.2 0.00 0.00 0.00 88 1010.4
20260904044119 76 182 2.6 5.2 0.00 0.00 0.00 88 1010.3
20260904044004 76 184 2.6 5.2 0.00 0.00 0.00 88 1010.3
20260904043912 76 184 2.6 5.2 0.00 0.00 0.00 88 1010.3
20260904043819 76 182 2.6 5.2 0.00 0.00 0.00 88 1010.4
20260904043656 76 184 2.6 5.2 0.00 0.00 0.00 88 1010.3
20260904043620 76 184 3.5 5.2 0.00 0.00 0.00 88 1010.3
20260904043504 76 186 3.5 5.2 0.00 0.00 0.00 88 1010.3
20260904043429 76 187 3.5 5.2 0.00 0.00 0.00 88 1010.3
20260904043256 76 179 3.5 5.2 0.00 0.00 0.00 88 1010.4
20260904043221 76 177 3.5 5.2 0.00 0.00 0.00 88 1010.4
20260904043104 76 172 2.6 5.2 0.00 0.00 0.00 88 1010.4
20260904043009 76 178 1.7 5.2 0.00 0.00 0.00 88 1010.4
20260904042913 76 178 2.6 5.2 0.00 0.00 0.00 88 1010.4
20260904042758 76 178 3.5 5.2 0.00 0.00 0.00 87 1010.3
20260904042723 76 170 3.5 5.2 0.00 0.00 0.00 87 1010.3
20260904042626 76 169 3.5 5.2 0.00 0.00 0.00 87 1010.3
20260904042534 76 170 3.5 5.2 0.00 0.00 0.00 87 1010.3
20260904042358 76 170 3.5 5.2 0.00 0.00 0.00 87 1010.3
20260904042306 76 190 3.5 5.2 0.00 0.00 0.00 87 1010.3
20260904042208 76 192 4.3 5.2 0.00 0.00 0.00 87 1010.2
20260904042112 76 171 3.5 4.3 0.00 0.00 0.00 86 1010.2
20260904041958 76 168 3.5 4.3 0.00 0.00 0.00 86 1010.2
20260904041906 77 168 2.6 4.3 0.00 0.00 0.00 86 1010.2
20260904041810 77 168 2.6 5.2 0.00 0.00 0.00 86 1010.2
20260904041735 77 168 3.5 5.2 0.00 0.00 0.00 86 1010.2
20260904041639 77 168 3.5 5.2 0.00 0.00 0.00 86 1010.2
20260904041455 77 167 3.5 5.2 0.00 0.00 0.00 86 1010.2
20260904041420 77 167 2.6 5.2 0.00 0.00 0.00 86 1010.2
20260904041257 77 159 2.6 5.2 0.00 0.00 0.00 86 1010.1
20260904041206 77 159 2.6 5.2 0.00 0.00 0.00 86 1010.2
20260904041112 77 159 3.5 5.2 0.00 0.00 0.00 86 1010.2
20260904040957 77 159 2.6 5.2 0.00 0.00 0.00 86 1010.3
20260904040921 77 165 2.6 5.2 0.00 0.00 0.00 85 1010.2
20260904040805 77 164 2.6 5.2 0.00 0.00 0.00 85 1010.2
20260904040709 77 161 3.5 5.2 0.00 0.00 0.00 85 1010.2
20260904040558 77 157 4.3 5.2 0.00 0.00 0.00 85 1010.2
20260904040503 77 162 4.3 5.2 0.00 0.00 0.00 85 1010.1
20260904040429 77 161 3.5 5.2 0.00 0.00 0.00 85 1010.1
20260904040312 78 161 2.6 5.2 0.00 0.00 0.00 85 1010.1
20260904040217 78 173 1.7 5.2 0.00 0.00 0.00 85 1010.1
20260904040056 78 173 1.7 5.2 0.00 0.00 0.00 85 1010.1
20260904040021 78 173 1.7 5.2 0.00 0.00 0.00 86 1010.0
20260904035908 78 174 1.7 5.2 0.00 0.00 0.00 85 1010.0
20260904035833 78 174 2.6 5.2 0.00 0.00 0.00 85 1010.1
20260904035718 78 175 2.6 5.2 0.00 0.00 0.00 85 1010.0
20260904035621 78 174 3.5 5.2 0.00 0.00 0.00 86 1010.0
20260904035500 78 166 3.5 5.2 0.00 0.00 0.00 86 1010.0
20260904035405 78 182 3.5 5.2 0.00 0.00 0.00 86 1010.1
20260904035309 78 178 3.5 5.2 0.00 0.00 0.00 85 1010.1
20260904035217 78 167 2.6 5.2 0.00 0.00 0.00 85 1009.9
20260904035100 78 169 3.5 5.2 0.00 0.00 0.00 85 1010.0
20260904035004 78 171 3.5 5.2 0.00 0.00 0.00 85 1010.1
20260904034910 78 182 3.5 5.2 0.00 0.00 0.00 85 1010.1
20260904034814 78 193 3.5 5.2 0.00 0.00 0.00 85 1010.0
20260904034659 78 196 2.6 5.2 0.00 0.00 0.00 85 1010.0
20260904034624 78 201 2.6 5.2 0.00 0.00 0.00 85 1010.1
20260904034511 78 203 3.5 5.2 0.00 0.00 0.00 85 1010.1
20260904034417 78 202 3.5 5.2 0.00 0.00 0.00 85 1010.0
20260904034300 78 202 3.5 5.2 0.00 0.00 0.00 84 1010.1
20260904034204 78 200 3.5 5.2 0.00 0.00 0.00 84 1010.0
20260904034110 78 199 3.5 5.2 0.00 0.00 0.00 84 1010.0
20260904034014 78 198 4.3 5.2 0.00 0.00 0.00 84 1010.0
20260904033920 78 196 3.5 5.2 0.00 0.00 0.00 84 1010.0
20260904033807 78 191 3.5 5.2 0.00 0.00 0.00 84 1010.0
20260904033732 78 190 4.3 5.2 0.00 0.00 0.00 84 1010.0
20260904033557 78 197 3.5 6.1 0.00 0.00 0.00 84 1010.0
20260904033501 78 194 4.3 6.1 0.00 0.00 0.00 84 1010.1
20260904033407 78 192 3.5 6.1 0.00 0.00 0.00 84 1010.1
20260904033311 78 193 3.5 6.1 0.00 0.00 0.00 84 1010.1
20260904033200 78 197 3.5 6.1 0.00 0.00 0.00 84 1010.1
20260904033125 78 197 3.5 6.1 0.00 0.00 0.00 83 1010.1
20260904033009 78 197 3.5 6.1 0.00 0.00 0.00 83 1010.1
20260904032913 78 196 4.3 6.1 0.00 0.00 0.00 83 1010.1
20260904032759 79 207 4.3 7.0 0.00 0.00 0.00 83 1010.0
20260904032704 79 203 4.3 7.8 0.00 0.00 0.00 83 1010.0
20260904032612 79 205 4.3 7.8 0.00 0.00 0.00 83 1010.0
20260904032517 79 213 4.3 7.8 0.00 0.00 0.00 83 1010.0
20260904032355 79 207 3.5 7.8 0.00 0.00 0.00 83 1010.0
20260904032300 79 240 3.5 7.8 0.00 0.00 0.00 83 1010.1
20260904032204 79 220 4.3 7.8 0.00 0.00 0.00 83 1010.0
20260904032109 79 210 5.2 7.8 0.00 0.00 0.00 83 1010.0
20260904031958 79 198 5.2 7.8 0.00 0.00 0.00 83 1010.0
20260904031903 79 229 4.3 7.0 0.00 0.00 0.00 83 1010.0
20260904031829 79 235 4.3 7.0 0.00 0.00 0.00 83 1009.9
20260904031712 79 221 4.3 7.0 0.00 0.00 0.00 83 1009.9
20260904031558 79 238 4.3 7.0 0.00 0.00 0.00 83 1010.0
20260904031502 79 232 4.3 7.0 0.00 0.00 0.00 83 1010.0
20260904031411 79 241 4.3 7.0 0.00 0.00 0.00 83 1010.0
20260904031316 79 236 5.2 7.8 0.00 0.00 0.00 83 1009.9
20260904031220 79 236 5.2 7.8 0.00 0.00 0.00 83 1009.9
20260904031057 79 239 5.2 7.8 0.00 0.00 0.00 83 1009.9
20260904031002 79 232 5.2 7.8 0.00 0.00 0.00 83 1009.9
20260904030908 79 234 5.2 8.7 0.00 0.00 0.00 83 1009.9
20260904030833 79 232 5.2 8.7 0.00 0.00 0.00 83 1009.9
20260904030700 79 248 4.3 8.7 0.00 0.00 0.00 82 1009.9
20260904030604 79 244 4.3 8.7 0.00 0.00 0.00 82 1009.9
20260904030510 79 252 4.3 8.7 0.00 0.00 0.00 82 1009.9
20260904030417 79 227 4.3 8.7 0.00 0.00 0.00 82 1010.0
20260904030319 79 246 5.2 8.7 0.00 0.00 0.00 82 1010.0
20260904030157 79 254 6.1 8.7 0.00 0.00 0.00 82 1010.0
20260904030107 79 219 5.2 8.7 0.00 0.00 0.00 82 1010.0
20260904030012 79 220 4.3 7.8 0.00 0.00 0.00 82 1010.0
20260904025856 79 228 5.2 7.8 0.00 0.00 0.00 82 1009.9
20260904025800 79 240 5.2 7.8 0.00 0.00 0.00 82 1009.9
20260904025706 79 235 4.3 7.8 0.00 0.00 0.00 82 1010.0
20260904025610 79 227 4.3 7.8 0.00 0.00 0.00 82 1010.0
20260904025458 79 221 4.3 7.8 0.00 0.00 0.00 82 1010.0
20260904025424 79 234 4.3 7.8 0.00 0.00 0.00 82 1010.0
20260904025307 79 228 5.2 7.8 0.00 0.00 0.00 82 1010.1
20260904025210 79 247 4.3 7.8 0.00 0.00 0.00 82 1010.1
20260904025055 79 218 3.5 7.0 0.00 0.00 0.00 82 1010.1
20260904025000 79 217 4.3 7.0 0.00 0.00 0.00 82 1010.1
20260904024929 79 217 4.3 7.0 0.00 0.00 0.00 82 1010.1
20260904024814 79 217 4.3 7.0 0.00 0.00 0.00 82 1010.1
20260904024718 79 226 5.2 7.8 0.00 0.00 0.00 82 1010.1
20260904024555 79 230 4.3 7.0 0.00 0.00 0.00 82 1010.1
20260904024458 79 224 4.3 7.0 0.00 0.00 0.00 81 1010.0
20260904024402 79 211 4.3 7.0 0.00 0.00 0.00 81 1010.0
20260904024327 79 240 4.3 7.8 0.00 0.00 0.00 81 1010.0
20260904024211 79 238 5.2 7.8 0.00 0.00 0.00 81 1010.0
20260904024120 79 214 5.2 7.8 0.00 0.00 0.00 81 1010.0
20260904023957 79 227 5.2 7.8 0.00 0.00 0.00 81 1010.0
20260904023902 79 223 5.2 7.8 0.00 0.00 0.00 81 1010.0
20260904023807 79 226 4.3 7.8 0.00 0.00 0.00 81 1010.0
20260904023711 79 213 4.3 7.8 0.00 0.00 0.00 81 1010.0
20260904023615 79 220 5.2 7.8 0.00 0.00 0.00 81 1010.0
20260904023504 79 220 5.2 7.8 0.00 0.00 0.00 81 1010.0
20260904023408 79 216 5.2 7.0 0.00 0.00 0.00 81 1010.0
20260904023314 79 225 5.2 7.0 0.00 0.00 0.00 81 1010.0
20260904023159 79 215 5.2 7.8 0.00 0.00 0.00 81 1010.0
20260904023104 79 225 5.2 7.0 0.00 0.00 0.00 80 1010.0
20260904023008 79 217 5.2 7.0 0.00 0.00 0.00 80 1009.9
20260904022936 79 216 5.2 7.0 0.00 0.00 0.00 80 1009.9
20260904022820 79 218 5.2 7.0 0.00 0.00 0.00 80 1009.9
20260904022657 79 219 5.2 7.0 0.00 0.00 0.00 80 1010.0
20260904022602 79 220 5.2 7.0 0.00 0.00 0.00 80 1010.0
20260904022507 79 217 5.2 7.0 0.00 0.00 0.00 80 1009.9
20260904022411 79 231 5.2 7.0 0.00 0.00 0.00 80 1009.9
20260904022300 79 229 5.2 7.0 0.00 0.00 0.00 80 1009.9
20260904022204 80 221 5.2 6.1 0.00 0.00 0.00 80 1010.0
20260904022129 80 223 5.2 6.1 0.00 0.00 0.00 80 1010.0
20260904022013 80 219 4.3 6.1 0.00 0.00 0.00 80 1010.0
20260904021918 80 225 4.3 6.1 0.00 0.00 0.00 80 1009.9
20260904021755 80 221 4.3 6.1 0.00 0.00 0.00 80 1009.9
20260904021705 80 209 4.3 6.1 0.00 0.00 0.00 80 1010.0
20260904021629 80 229 4.3 6.1 0.00 0.00 0.00 80 1010.0
20260904021533 80 217 4.3 6.1 0.00 0.00 0.00 79 1010.0
20260904021417 80 215 4.3 6.1 0.00 0.00 0.00 79 1010.0
20260904021255 80 211 4.3 6.1 0.00 0.00 0.00 79 1010.0
20260904021200 80 215 3.5 6.1 0.00 0.00 0.00 79 1010.0
20260904021105 80 213 4.3 7.0 0.00 0.00 0.00 79 1010.0
20260904021008 80 207 4.3 7.0 0.00 0.00 0.00 79 1009.8
20260904020856 80 225 4.3 7.8 0.00 0.00 0.00 79 1009.9
20260904020821 80 217 4.3 7.8 0.00 0.00 0.00 79 1009.9
20260904020705 80 214 4.3 7.8 0.00 0.00 0.00 79 1009.9
20260904020608 80 215 4.3 7.8 0.00 0.00 0.00 79 1010.0
20260904020512 80 220 4.3 7.8 0.00 0.00 0.00 79 1010.0
20260904020356 80 212 4.3 7.8 0.00 0.00 0.00 78 1010.0
20260904020304 80 220 5.2 7.8 0.00 0.00 0.00 78 1010.0
20260904020229 80 217 5.2 7.8 0.00 0.00 0.00 78 1010.0
20260904020114 80 215 5.2 7.8 0.00 0.00 0.00 78 1010.0
20260904020019 81 225 4.3 7.0 0.00 0.00 0.00 78 1010.1
20260904015922 81 216 4.3 7.0 0.00 0.00 0.00 78 1010.1
20260904015807 81 211 4.3 7.0 0.00 0.00 0.00 78 1010.1
20260904015711 81 217 4.3 7.0 0.00 0.00 0.00 78 1010.1
20260904015600 81 202 4.3 7.0 0.00 0.00 0.00 78 1010.0
20260904015504 81 212 4.3 6.1 0.00 0.00 0.00 78 1010.0
20260904015409 81 208 4.3 6.1 0.00 0.00 0.00 78 1010.0
20260904015315 81 221 4.3 6.1 0.00 0.00 0.00 78 1010.1
20260904015219 81 220 4.3 6.1 0.00 0.00 0.00 78 1010.1
20260904015057 81 211 3.5 7.0 0.00 0.00 0.00 78 1010.1
20260904015007 81 218 3.5 7.0 0.00 0.00 0.00 78 1010.0
20260904014931 81 217 4.3 7.0 0.00 0.00 0.00 78 1010.0
20260904014815 81 232 4.3 7.0 0.00 0.00 0.00 78 1010.1
20260904014721 81 230 4.3 7.0 0.00 0.00 0.00 78 1010.0
20260904014558 81 223 3.5 6.1 0.00 0.00 0.00 78 1010.1
20260904014523 81 224 4.3 6.1 0.00 0.00 0.00 77 1010.1
20260904014407 81 231 4.3 6.1 0.00 0.00 0.00 77 1010.1
20260904014331 81 232 4.3 6.1 0.00 0.00 0.00 78 1010.1
20260904014200 81 235 3.5 6.1 0.00 0.00 0.00 78 1010.0
20260904014104 81 211 3.5 6.1 0.00 0.00 0.00 78 1010.1
20260904014009 81 210 4.3 6.1 0.00 0.00 0.00 77 1010.1
20260904013914 81 209 4.3 6.1 0.00 0.00 0.00 78 1010.2
20260904013819 81 216 4.3 7.0 0.00 0.00 0.00 77 1010.1
20260904013703 81 213 4.3 7.0 0.00 0.00 0.00 77 1010.1
20260904013612 81 209 4.3 7.0 0.00 0.00 0.00 77 1010.1
20260904013518 81 218 4.3 7.0 0.00 0.00 0.00 77 1010.1
20260904013355 81 202 4.3 7.0 0.00 0.00 0.00 77 1010.0
20260904013301 81 205 4.3 7.0 0.00 0.00 0.00 77 1010.0
20260904013226 81 202 4.3 7.0 0.00 0.00 0.00 77 1010.0
20260904013110 81 222 4.3 7.0 0.00 0.00 0.00 77 1010.0
20260904012958 81 201 4.3 7.0 0.00 0.00 0.00 77 1010.0
20260904012904 81 209 4.3 6.1 0.00 0.00 0.00 77 1010.0
20260904012808 81 204 4.3 6.1 0.00 0.00 0.00 77 1010.0
20260904012713 81 207 4.3 6.1 0.00 0.00 0.00 77 1009.9
20260904012619 81 211 3.5 6.1 0.00 0.00 0.00 77 1009.9
20260904012457 82 211 3.5 6.1 0.00 0.00 0.00 77 1009.9
20260904012426 82 211 3.5 6.1 0.00 0.00 0.00 77 1009.9
20260904012309 82 215 3.5 6.1 0.00 0.00 0.00 77 1009.9
20260904012214 82 209 3.5 6.1 0.00 0.00 0.00 77 1009.9
20260904012059 82 208 3.5 6.1 0.00 0.00 0.00 77 1009.9
20260904012004 82 208 3.5 6.1 0.00 0.00 0.00 77 1009.9
20260904011908 82 208 3.5 6.1 0.00 0.00 0.00 77 1009.9
20260904011756 82 208 4.3 6.1 0.00 0.00 0.00 76 1009.9
20260904011702 82 204 3.5 5.2 0.00 0.00 0.00 76 1009.8
20260904011626 82 198 3.5 5.2 0.00 0.00 0.00 76 1009.9
20260904011510 82 197 3.5 5.2 0.00 0.00 0.00 76 1009.9
20260904011355 82 196 4.3 5.2 0.00 0.00 0.00 76 1009.8
20260904011301 82 193 3.5 5.2 0.00 0.00 0.00 76 1009.9
20260904011226 82 193 3.5 5.2 0.00 0.00 0.00 76 1009.8
20260904011114 82 215 3.5 5.2 0.00 0.00 0.00 76 1009.8
20260904011019 82 215 3.5 5.2 0.00 0.00 0.00 76 1009.8
20260904010856 82 209 2.6 5.2 0.00 0.00 0.00 76 1009.8
20260904010801 82 208 2.6 5.2 0.00 0.00 0.00 76 1009.7
20260904010726 82 207 3.5 5.2 0.00 0.00 0.00 75 1009.8
20260904010609 82 207 3.5 5.2 0.00 0.00 0.00 75 1009.8
20260904010458 82 207 2.6 5.2 0.00 0.00 0.00 75 1009.7
20260904010403 82 224 3.5 5.2 0.00 0.00 0.00 75 1009.7
20260904010308 82 224 3.5 5.2 0.00 0.00 0.00 75 1009.7
20260904010213 82 226 3.5 5.2 0.00 0.00 0.00 75 1009.7
20260904010118 82 229 3.5 5.2 0.00 0.00 0.00 75 1009.7
20260904005955 82 232 3.5 5.2 0.00 0.00 0.00 75 1009.7
20260904005924 82 197 3.5 5.2 0.00 0.00 0.00 75 1009.7
20260904005808 82 219 2.6 5.2 0.00 0.00 0.00 75 1009.7
20260904005713 82 219 2.6 5.2 0.00 0.00 0.00 74 1009.7
20260904005558 82 218 4.3 5.2 0.00 0.00 0.00 74 1009.7
20260904005502 82 219 4.3 6.1 0.00 0.00 0.00 74 1009.6
20260904005428 82 217 4.3 6.1 0.00 0.00 0.00 74 1009.6
20260904005312 82 220 3.5 6.1 0.00 0.00 0.00 74 1009.6
20260904005242 82 212 3.5 6.1 0.00 0.00 0.00 74 1009.6
20260904005059 82 225 3.5 6.1 0.00 0.00 0.00 74 1009.6
20260904005003 82 224 3.5 6.1 0.00 0.00 0.00 74 1009.6
20260904004908 82 212 3.5 6.1 0.00 0.00 0.00 74 1009.6
20260904004813 82 212 4.3 6.1 0.00 0.00 0.00 74 1009.7
20260904004657 82 211 3.5 6.1 0.00 0.00 0.00 74 1009.6
20260904004606 82 223 3.5 6.1 0.00 0.00 0.00 74 1009.6
20260904004531 82 223 3.5 6.1 0.00 0.00 0.00 74 1009.6
20260904004435 82 211 2.6 6.1 0.00 0.00 0.00 74 1009.6
20260904004300 82 211 3.5 6.1 0.00 0.00 0.00 74 1009.6
20260904004204 82 211 3.5 6.1 0.00 0.00 0.00 74 1009.6
20260904004109 82 211 3.5 6.1 0.00 0.00 0.00 74 1009.6
20260904003958 83 215 3.5 6.1 0.00 0.00 0.00 74 1009.6
20260904003903 83 216 4.3 6.1 0.00 0.00 0.00 74 1009.6
20260904003808 82 231 3.5 6.1 0.00 0.00 0.00 74 1009.6
20260904003712 83 201 3.5 5.2 0.00 0.00 0.00 74 1009.6
20260904003557 83 216 3.5 5.2 0.00 0.00 0.00 74 1009.6
20260904003502 83 215 3.5 6.1 0.00 0.00 0.00 74 1009.6
20260904003427 83 215 3.5 6.1 0.00 0.00 0.00 74 1009.6
20260904003255 83 216 3.5 6.1 0.00 0.00 0.00 74 1009.6
20260904003200 83 215 4.3 6.1 0.00 0.00 0.00 74 1009.5
20260904003105 83 214 4.3 6.1 0.00 0.00 0.00 74 1009.6
20260904003010 83 225 4.3 6.1 0.00 0.00 0.00 74 1009.6
20260904002855 83 198 3.5 6.1 0.00 0.00 0.00 73 1009.6
20260904002805 83 194 3.5 6.1 0.00 0.00 0.00 73 1009.6
20260904002730 83 217 4.3 6.1 0.00 0.00 0.00 73 1009.6
20260904002614 83 215 4.3 6.1 0.00 0.00 0.00 73 1009.6
20260904002458 83 221 3.5 6.1 0.00 0.00 0.00 73 1009.5
20260904002402 83 196 3.5 6.1 0.00 0.00 0.00 73 1009.6
20260904002328 83 222 4.3 6.1 0.00 0.00 0.00 73 1009.6
20260904002231 83 215 4.3 6.1 0.00 0.00 0.00 73 1009.6
20260904002059 83 210 4.3 6.1 0.00 0.00 0.00 73 1009.6
20260904002003 83 216 4.3 6.1 0.00 0.00 0.00 73 1009.6
20260904001909 83 218 4.3 6.1 0.00 0.00 0.00 73 1009.6
20260904001813 83 219 4.3 7.0 0.00 0.00 0.00 73 1009.6
20260904001718 83 198 3.5 7.0 0.00 0.00 0.00 72 1009.6
20260904001602 83 215 3.5 7.0 0.00 0.00 0.00 72 1009.6
20260904001506 83 214 3.5 8.7 0.00 0.00 0.00 72 1009.7
20260904001415 83 213 4.3 8.7 0.00 0.00 0.00 72 1009.7
20260904001259 83 246 4.3 8.7 0.00 0.00 0.00 72 1009.6
20260904001205 83 223 4.3 8.7 0.00 0.00 0.00 72 1009.5
20260904001109 83 236 4.3 8.7 0.00 0.00 0.00 72 1009.5
20260904001014 83 220 5.2 8.7 0.00 0.00 0.00 72 1009.6
20260904000903 83 219 4.3 8.7 0.00 0.00 0.00 72 1009.5
20260904000808 83 227 5.2 8.7 0.00 0.00 0.00 72 1009.5
20260904000713 83 252 7.0 8.7 0.00 0.00 0.00 72 1009.6
20260904000640 83 223 5.2 8.7 0.00 0.00 0.00 72 1009.6
20260904000456 83 236 3.5 8.7 0.00 0.00 0.00 72 1009.6
20260904000421 83 217 4.3 8.7 0.00 0.00 0.00 72 1009.6
20260904000305 83 250 4.3 8.7 0.00 0.00 0.00 71 1009.6
20260904000214 83 224 4.3 8.7 0.00 0.00 0.00 72 1009.6
20260904000119 83 211 4.3 8.7 0.00 0.00 0.00 72 1009.5
20260903235955 83 223 4.3 8.7 0.00 0.00 0.00 71 1009.6
20260903235900 83 238 4.3 8.7 0.00 0.00 0.00 71 1009.5
20260903235804 83 232 4.3 8.7 0.00 0.00 0.00 71 1009.5
20260903235729 83 223 5.2 8.7 0.00 0.00 0.00 71 1009.5
20260903235557 84 245 7.0 8.7 0.00 0.00 0.00 71 1009.5
20260903235502 84 219 6.1 9.6 0.00 0.00 0.00 71 1009.5
20260903235408 84 227 4.3 9.6 0.00 0.00 0.00 71 1009.5
20260903235312 84 238 4.3 9.6 0.00 0.00 0.00 71 1009.5
20260903235217 84 225 7.0 9.6 0.00 0.00 0.00 71 1009.6
20260903235101 84 221 7.0 9.6 0.00 0.00 0.00 71 1009.5
20260903235007 84 234 6.1 9.6 0.00 0.00 0.00 71 1009.6
20260903234855 84 256 6.1 9.6 0.00 0.00 0.00 71 1009.5
20260903234800 84 252 7.8 9.6 0.00 0.00 0.00 71 1009.5
20260903234706 84 246 7.0 9.6 0.00 0.00 0.00 70 1009.5
20260903234610 84 260 7.0 9.6 0.00 0.00 0.00 70 1009.5
20260903234535 84 206 6.1 8.7 0.00 0.00 0.00 70 1009.5
20260903234359 84 217 7.0 8.7 0.00 0.00 0.00 70 1009.4
20260903234308 84 218 7.0 8.7 0.00 0.00 0.00 70 1009.4
20260903234213 84 223 6.1 9.6 0.00 0.00 0.00 70 1009.3
20260903234118 84 238 4.3 11.3 0.00 0.00 0.00 70 1009.4
20260903234002 84 248 4.3 11.3 0.00 0.00 0.00 70 1009.3
20260903233926 84 236 4.3 11.3 0.00 0.00 0.00 70 1009.3
20260903233810 84 252 5.2 11.3 0.00 0.00 0.00 70 1009.3
20260903233731 84 239 6.1 11.3 0.00 0.00 0.00 70 1009.3
20260903233559 84 208 6.1 11.3 0.00 0.00 0.00 69 1009.2
20260903233504 84 227 7.0 12.2 0.00 0.00 0.00 69 1009.2
20260903233410 84 217 7.0 12.2 0.00 0.00 0.00 69 1009.2
20260903233314 84 209 7.0 12.2 0.00 0.00 0.00 69 1009.2
20260903233159 84 242 6.1 13.0 0.00 0.00 0.00 69 1009.3
20260903233104 84 205 7.0 13.9 0.00 0.00 0.00 69 1009.2
20260903233013 85 234 7.8 13.9 0.00 0.00 0.00 69 1009.2
20260903232919 85 237 7.0 13.9 0.00 0.00 0.00 69 1009.2
20260903232756 85 229 8.7 13.9 0.00 0.00 0.00 68 1009.1
20260903232721 85 225 8.7 13.9 0.00 0.00 0.00 68 1009.1
20260903232558 85 235 8.7 13.9 0.00 0.00 0.00 68 1009.1
20260903232503 85 264 10.4 13.9 0.00 0.00 0.00 68 1009.1
20260903232413 85 232 9.6 13.9 0.00 0.00 0.00 68 1009.1
20260903232337 85 252 7.0 13.9 0.00 0.00 0.00 68 1009.1
20260903232242 85 246 7.8 13.9 0.00 0.00 0.00 68 1009.1
20260903232058 85 229 7.8 13.9 0.00 0.00 0.00 68 1009.1
20260903232003 85 235 8.7 13.9 0.00 0.00 0.00 68 1009.0
20260903231927 85 212 8.7 13.9 0.00 0.00 0.00 68 1009.1
20260903231811 85 233 7.0 13.9 0.00 0.00 0.00 68 1009.1
20260903231659 85 236 7.8 13.9 0.00 0.00 0.00 68 1009.0
20260903231604 85 257 7.0 13.9 0.00 0.00 0.00 68 1009.1
20260903231510 85 228 7.0 13.0 0.00 0.00 0.00 68 1009.1
20260903231434 85 243 7.8 13.0 0.00 0.00 0.00 68 1009.1
20260903231318 85 192 8.7 13.0 0.00 0.00 0.00 68 1009.1
20260903231156 85 261 7.8 13.0 0.00 0.00 0.00 67 1009.0
20260903231121 85 250 8.7 13.0 0.00 0.00 0.00 67 1009.1
20260903231010 85 236 10.4 13.0 0.00 0.00 0.00 67 1009.1
20260903230914 85 244 9.6 13.0 0.00 0.00 0.00 67 1009.0
20260903230818 85 208 6.1 11.3 0.00 0.00 0.00 68 1009.0
20260903230702 85 215 6.1 11.3 0.00 0.00 0.00 68 1009.0
20260903230627 85 213 7.8 11.3 0.00 0.00 0.00 68 1009.0
20260903230510 85 209 8.7 11.3 0.00 0.00 0.00 67 1009.0
20260903230359 85 207 8.7 12.2 0.00 0.00 0.00 68 1008.9
20260903230304 85 236 8.7 12.2 0.00 0.00 0.00 67 1008.9
20260903230208 85 234 8.7 12.2 0.00 0.00 0.00 67 1008.9
20260903230131 85 216 7.8 12.2 0.00 0.00 0.00 67 1008.9
20260903225956 85 199 7.0 10.4 0.00 0.00 0.00 68 1009.0
20260903225900 85 208 7.0 10.4 0.00 0.00 0.00 67 1009.0
20260903225804 85 255 6.1 10.4 0.00 0.00 0.00 68 1009.1
20260903225734 85 211 7.0 10.4 0.00 0.00 0.00 68 1009.1
20260903225558 85 233 6.1 10.4 0.00 0.00 0.00 68 1009.0
20260903225502 85 254 4.3 10.4 0.00 0.00 0.00 68 1009.1
20260903225426 85 250 4.3 10.4 0.00 0.00 0.00 69 1009.0
20260903225310 85 235 4.3 10.4 0.00 0.00 0.00 68 1009.0
20260903225155 85 248 7.0 10.4 0.00 0.00 0.00 68 1009.0
20260903225104 85 272 7.0 10.4 0.00 0.00 0.00 68 1009.1
20260903225009 85 219 6.1 10.4 0.00 0.00 0.00 68 1009.1
20260903224914 85 205 7.0 10.4 0.00 0.00 0.00 68 1009.1
20260903224819 85 196 7.0 10.4 0.00 0.00 0.00 68 1009.1
20260903224703 85 216 6.1 10.4 0.00 0.00 0.00 68 1009.1
20260903224608 85 240 5.2 10.4 0.00 0.00 0.00 68 1009.1
20260903224457 85 211 4.3 10.4 0.00 0.00 0.00 68 1009.2
20260903224402 85 237 6.1 10.4 0.00 0.00 0.00 68 1009.2
20260903224307 85 247 7.0 10.4 0.00 0.00 0.00 68 1009.2
20260903224212 85 239 7.0 10.4 0.00 0.00 0.00 68 1009.2
20260903224117 85 228 7.8 11.3 0.00 0.00 0.00 68 1009.2
20260903224001 85 246 7.8 10.4 0.00 0.00 0.00 67 1009.2
20260903223907 85 223 6.1 10.4 0.00 0.00 0.00 68 1009.2
20260903223755 85 248 6.1 10.4 0.00 0.00 0.00 68 1009.1
20260903223721 85 233 7.0 10.4 0.00 0.00 0.00 68 1009.1
20260903223558 85 245 7.0 10.4 0.00 0.00 0.00 68 1009.2
20260903223523 85 250 5.2 14.8 0.00 0.00 0.00 68 1009.2
20260903223407 85 234 3.5 14.8 0.00 0.00 0.00 69 1009.2
20260903223312 85 298 5.2 14.8 0.00 0.00 0.00 69 1009.2
20260903223201 85 247 5.2 14.8 0.00 0.00 0.00 69 1009.2
20260903223105 85 200 5.2 14.8 0.00 0.00 0.00 69 1009.2
20260903223009 85 249 6.1 14.8 0.00 0.00 0.00 70 1009.2
20260903222914 85 209 7.8 14.8 0.00 0.00 0.00 69 1009.1
20260903222759 85 206 9.6 14.8 0.00 0.00 0.00 71 1009.2
20260903222705 85 208 8.7 14.8 0.00 0.00 0.00 70 1009.2
20260903222613 85 279 7.0 14.8 0.00 0.00 0.00 72 1009.2
20260903222539 85 208 5.2 13.9 0.00 0.00 0.00 72 1009.2
20260903222356 85 202 6.1 13.9 0.00 0.00 0.00 71 1009.2
20260903222305 85 231 6.1 13.9 0.00 0.00 0.00 70 1009.1
20260903222228 85 236 4.3 8.7 0.00 0.00 0.00 70 1009.1
20260903222131 85 203 4.3 8.7 0.00 0.00 0.00 72 1009.1
20260903222035 85 236 6.1 10.4 0.00 0.00 0.00 72 1009.2
20260903221903 85 210 7.0 10.4 0.00 0.00 0.00 72 1009.2
20260903221807 85 227 7.0 10.4 0.00 0.00 0.00 72 1009.2
20260903221711 85 202 7.8 10.4 0.00 0.00 0.00 72 1009.2
20260903221617 85 210 7.0 10.4 0.00 0.00 0.00 72 1009.2
20260903221540 85 211 7.8 10.4 0.00 0.00 0.00 72 1009.2
20260903221357 85 225 7.8 10.4 0.00 0.00 0.00 72 1009.2
20260903221302 85 221 7.8 10.4 0.00 0.00 0.00 72 1009.3
20260903221230 84 201 7.8 11.3 0.00 0.00 0.00 73 1009.3
20260903221114 84 207 7.8 10.4 0.00 0.00 0.00 72 1009.3
20260903220959 84 217 8.7 10.4 0.00 0.00 0.00 72 1009.3
20260903220924 84 202 9.6 12.2 0.00 0.00 0.00 73 1009.2
20260903220808 84 240 7.8 12.2 0.00 0.00 0.00 73 1009.2
20260903220713 84 224 7.8 12.2 0.00 0.00 0.00 73 1009.2
20260903220602 85 244 7.0 12.2 0.00 0.00 0.00 72 1009.2
20260903220507 85 254 5.2 12.2 0.00 0.00 0.00 73 1009.2
20260903220412 85 231 6.1 12.2 0.00 0.00 0.00 74 1009.2
20260903220317 85 234 7.0 12.2 0.00 0.00 0.00 73 1009.2
20260903220221 85 219 6.1 10.4 0.00 0.00 0.00 74 1009.1
20260903220057 85 241 7.0 11.3 0.00 0.00 0.00 74 1009.1
20260903220023 84 242 7.0 11.3 0.00 0.00 0.00 73 1009.0
20260903215910 84 213 5.2 11.3 0.00 0.00 0.00 74 1009.0
20260903215755 84 220 5.2 14.8 0.00 0.00 0.00 74 1009.0
20260903215700 84 218 7.0 14.8 0.00 0.00 0.00 73 1009.1
20260903215604 84 265 7.8 14.8 0.00 0.00 0.00 73 1009.0
20260903215510 84 257 7.8 15.6 0.00 0.00 0.00 73 1009.0
20260903215414 84 223 7.8 15.6 0.00 0.00 0.00 74 1009.1
20260903215306 84 221 8.7 15.6 0.00 0.00 0.00 74 1009.0
20260903215207 84 212 8.7 15.6 0.00 0.00 0.00 74 1009.1
20260903215111 84 230 8.7 15.6 0.00 0.00 0.00 74 1009.1
20260903215036 84 228 9.6 15.6 0.00 0.00 0.00 74 1009.1
20260903214859 84 223 10.4 15.6 0.00 0.00 0.00 74 1009.1
20260903214804 84 219 11.3 15.6 0.00 0.00 0.00 74 1009.1
20260903214729 84 217 11.3 15.6 0.00 0.00 0.00 74 1009.1
20260903214556 84 244 7.8 13.0 0.00 0.00 0.00 75 1009.2
20260903214501 83 210 7.8 13.0 0.00 0.00 0.00 76 1009.1
20260903214405 83 224 8.7 13.0 0.00 0.00 0.00 75 1009.1
20260903214309 83 212 8.7 13.0 0.00 0.00 0.00 75 1009.1
20260903214214 83 203 8.7 13.0 0.00 0.00 0.00 75 1009.1
20260903214057 83 205 8.7 13.0 0.00 0.00 0.00 75 1009.1
20260903214007 83 227 8.7 13.0 0.00 0.00 0.00 75 1009.2
20260903213911 83 227 9.6 13.0 0.00 0.00 0.00 75 1009.2
20260903213836 83 240 7.8 13.9 0.00 0.00 0.00 76 1009.1
20260903213737 83 224 7.0 13.9 0.00 0.00 0.00 76 1009.2
20260903213641 83 224 7.0 13.9 0.00 0.00 0.00 76 1009.2
20260903213458 82 209 7.0 13.9 0.00 0.00 0.00 76 1009.3
20260903213422 82 251 7.0 13.9 0.00 0.00 0.00 76 1009.4
20260903213326 82 225 7.8 13.9 0.00 0.00 0.00 77 1009.3
20260903213229 82 223 8.7 13.9 0.00 0.00 0.00 76 1009.3
20260903213057 82 234 7.8 13.9 0.00 0.00 0.00 77 1009.3
20260903213002 82 216 7.8 13.9 0.00 0.00 0.00 76 1009.3
20260903212906 82 215 7.0 13.0 0.00 0.00 0.00 77 1009.3
20260903212810 81 198 7.8 13.0 0.00 0.00 0.00 76 1009.3
20260903212655 81 234 8.7 13.0 0.00 0.00 0.00 77 1009.3
20260903212604 81 221 7.8 13.0 0.00 0.00 0.00 77 1009.3
20260903212509 81 220 7.0 13.0 0.00 0.00 0.00 77 1009.3
20260903212414 81 221 7.0 13.0 0.00 0.00 0.00 77 1009.4
20260903212259 81 234 8.7 13.0 0.00 0.00 0.00 77 1009.4
20260903212204 81 212 8.7 13.0 0.00 0.00 0.00 76 1009.4
20260903212109 81 221 8.7 13.0 0.00 0.00 0.00 77 1009.4
20260903212018 81 239 7.8 13.0 0.00 0.00 0.00 76 1009.4
20260903211856 81 242 7.8 13.0 0.00 0.00 0.00 76 1009.4
20260903211801 81 241 7.8 13.0 0.00 0.00 0.00 76 1009.4
20260903211727 81 225 7.8 13.0 0.00 0.00 0.00 76 1009.5
20260903211610 81 210 7.8 13.0 0.00 0.00 0.00 76 1009.5
20260903211455 81 228 8.7 13.0 0.00 0.00 0.00 76 1009.5
20260903211404 81 234 8.7 13.0 0.00 0.00 0.00 76 1009.5
20260903211309 81 222 7.8 13.0 0.00 0.00 0.00 76 1009.5
20260903211214 81 223 8.7 15.6 0.00 0.00 0.00 76 1009.5
20260903211139 81 238 9.6 15.6 0.00 0.00 0.00 76 1009.5
20260903210956 81 225 7.8 15.6 0.00 0.00 0.00 77 1009.5
20260903210900 81 208 7.0 15.6 0.00 0.00 0.00 77 1009.4
20260903210805 81 214 7.8 15.6 0.00 0.00 0.00 77 1009.4
20260903210714 81 229 7.8 15.6 0.00 0.00 0.00 77 1009.4
20260903210619 81 219 7.8 15.6 0.00 0.00 0.00 76 1009.4
20260903210456 81 194 8.7 15.6 0.00 0.00 0.00 76 1009.5
20260903210401 81 207 7.8 14.8 0.00 0.00 0.00 77 1009.6
20260903210306 81 188 7.8 13.9 0.00 0.00 0.00 76 1009.5
20260903210231 81 227 7.8 13.9 0.00 0.00 0.00 76 1009.5
20260903210120 81 208 8.7 13.9 0.00 0.00 0.00 76 1009.6
20260903210023 81 209 8.7 13.9 0.00 0.00 0.00 76 1009.6
20260903205908 81 231 8.7 13.9 0.00 0.00 0.00 76 1009.6
20260903205813 81 213 8.7 13.9 0.00 0.00 0.00 76 1009.7
20260903205656 81 214 7.8 13.9 0.00 0.00 0.00 76 1009.6
20260903205601 81 221 7.8 13.9 0.00 0.00 0.00 76 1009.6
20260903205506 81 213 8.7 13.9 0.00 0.00 0.00 76 1009.7
20260903205355 81 244 8.7 13.9 0.00 0.00 0.00 76 1009.7
20260903205301 81 225 7.8 13.9 0.00 0.00 0.00 77 1009.7
20260903205205 81 194 8.7 13.9 0.00 0.00 0.00 76 1009.7
20260903205110 81 219 10.4 13.9 0.00 0.00 0.00 76 1009.7
20260903205034 81 201 9.6 14.8 0.00 0.00 0.00 75 1009.7
20260903204917 81 205 7.8 14.8 0.00 0.00 0.00 75 1009.7
20260903204821 81 211 7.8 14.8 0.00 0.00 0.00 75 1009.7
20260903204709 81 240 7.8 14.8 0.00 0.00 0.00 75 1009.7
20260903204614 81 205 8.7 14.8 0.00 0.00 0.00 75 1009.7
20260903204459 81 220 10.4 14.8 0.00 0.00 0.00 74 1009.7
20260903204424 82 209 10.4 14.8 0.00 0.00 0.00 74 1009.7
20260903204308 82 227 8.7 14.8 0.00 0.00 0.00 74 1009.7
20260903204233 82 223 8.7 13.9 0.00 0.00 0.00 74 1009.7
20260903204117 82 200 7.8 13.0 0.00 0.00 0.00 74 1009.8
20260903204005 82 238 7.0 13.0 0.00 0.00 0.00 75 1009.8
20260903203910 82 234 7.8 13.0 0.00 0.00 0.00 74 1009.8
20260903203756 82 223 8.7 13.0 0.00 0.00 0.00 73 1009.8
20260903203720 82 221 7.0 12.2 0.00 0.00 0.00 74 1009.8
20260903203603 82 232 5.2 8.7 0.00 0.00 0.00 74 1009.8
20260903203508 82 228 5.2 8.7 0.00 0.00 0.00 75 1009.8
20260903203357 82 232 4.3 11.3 0.00 0.00 0.00 74 1009.9
20260903203302 82 227 5.2 11.3 0.00 0.00 0.00 74 1009.9
20260903203207 82 236 7.0 11.3 0.00 0.00 0.00 73 1009.9
20260903203112 82 206 7.8 11.3 0.00 0.00 0.00 74 1009.9
20260903202958 82 240 6.1 11.3 0.00 0.00 0.00 74 1010.0
20260903202902 82 244 6.1 11.3 0.00 0.00 0.00 73 1010.0
20260903202810 82 273 7.8 11.3 0.00 0.00 0.00 73 1010.0
20260903202655 82 222 8.7 11.3 0.00 0.00 0.00 73 1010.1
20260903202600 82 192 7.0 9.6 0.00 0.00 0.00 73 1010.2
20260903202505 83 203 6.1 9.6 0.00 0.00 0.00 73 1010.1
20260903202410 82 207 6.1 9.6 0.00 0.00 0.00 73 1010.1
20260903202259 82 193 6.1 10.4 0.00 0.00 0.00 73 1010.2
20260903202224 82 202 5.2 9.6 0.00 0.00 0.00 73 1010.3
20260903202107 82 229 4.3 12.2 0.00 0.00 0.00 73 1010.3
20260903202032 82 221 5.2 12.2 0.00 0.00 0.00 73 1010.3
20260903201857 82 240 7.0 12.2 0.00 0.00 0.00 72 1010.2
20260903201801 82 243 7.0 12.2 0.00 0.00 0.00 73 1010.2
20260903201726 82 184 7.0 12.2 0.00 0.00 0.00 72 1010.2
20260903201609 82 208 6.1 12.2 0.00 0.00 0.00 73 1010.2
20260903201518 82 219 5.2 12.2 0.00 0.00 0.00 73 1010.1
20260903201356 82 206 7.8 12.2 0.00 0.00 0.00 73 1010.2
20260903201300 82 227 8.7 12.2 0.00 0.00 0.00 72 1010.2
20260903201206 82 189 8.7 11.3 0.00 0.00 0.00 71 1010.3
20260903201109 82 190 7.8 12.2 0.00 0.00 0.00 71 1010.3
20260903200959 82 186 7.0 10.4 0.00 0.00 0.00 72 1010.2
20260903200904 82 221 7.0 10.4 0.00 0.00 0.00 72 1010.2
20260903200808 82 234 7.8 10.4 0.00 0.00 0.00 72 1010.2
20260903200713 83 227 8.7 12.2 0.00 0.00 0.00 71 1010.3
20260903200618 83 225 8.7 11.3 0.00 0.00 0.00 71 1010.3
20260903200456 83 221 7.8 11.3 0.00 0.00 0.00 71 1010.2
20260903200405 83 223 6.1 11.3 0.00 0.00 0.00 73 1010.2
20260903200309 83 202 7.0 11.3 0.00 0.00 0.00 72 1010.2
20260903200215 83 232 7.8 11.3 0.00 0.00 0.00 71 1010.1
20260903200059 83 234 7.0 11.3 0.00 0.00 0.00 71 1010.1
20260903200004 83 209 7.8 11.3 0.00 0.00 0.00 71 1010.1
20260903195909 83 213 8.7 11.3 0.00 0.00 0.00 71 1010.1
20260903195818 83 217 7.8 13.0 0.00 0.00 0.00 72 1010.1
20260903195656 83 252 7.0 13.0 0.00 0.00 0.00 71 1010.3
20260903195620 83 195 7.0 13.0 0.00 0.00 0.00 71 1010.3
20260903195504 83 233 7.8 13.0 0.00 0.00 0.00 71 1010.2
20260903195409 83 266 7.8 13.0 0.00 0.00 0.00 72 1010.2
20260903195314 83 214 7.8 13.0 0.00 0.00 0.00 71 1010.2
20260903195202 83 219 8.7 13.0 0.00 0.00 0.00 71 1010.2
20260903195107 83 212 7.8 13.0 0.00 0.00 0.00 71 1010.2
20260903195013 83 213 6.1 9.6 0.00 0.00 0.00 73 1010.2
20260903194917 83 236 5.2 10.4 0.00 0.00 0.00 73 1010.3
20260903194821 83 230 5.2 10.4 0.00 0.00 0.00 72 1010.4
20260903194725 83 238 6.1 10.4 0.00 0.00 0.00 71 1010.4
20260903194607 83 263 7.8 10.4 0.00 0.00 0.00 71 1010.5
20260903194455 83 273 6.1 10.4 0.00 0.00 0.00 71 1010.5
20260903194400 83 224 6.1 10.4 0.00 0.00 0.00 72 1010.6
20260903194304 83 215 6.1 13.0 0.00 0.00 0.00 74 1010.6
20260903194209 83 246 7.0 13.0 0.00 0.00 0.00 72 1010.6
20260903194115 83 244 7.0 13.0 0.00 0.00 0.00 72 1010.6
20260903193959 83 254 7.0 13.0 0.00 0.00 0.00 74 1010.7
20260903193908 83 264 7.0 13.0 0.00 0.00 0.00 73 1010.7
20260903193813 82 215 7.0 13.0 0.00 0.00 0.00 73 1010.6
20260903193718 82 240 7.0 13.0 0.00 0.00 0.00 73 1010.7
20260903193556 82 227 7.8 13.0 0.00 0.00 0.00 74 1010.6
20260903193501 82 223 7.0 13.0 0.00 0.00 0.00 74 1010.7
20260903193406 82 223 5.2 8.7 0.00 0.00 0.00 75 1010.7
20260903193315 82 213 4.3 8.7 0.00 0.00 0.00 75 1010.7
20260903193159 82 221 4.3 8.7 0.00 0.00 0.00 76 1010.6
20260903193103 82 231 6.1 8.7 0.00 0.00 0.00 75 1010.6
20260903193007 81 207 6.1 8.7 0.00 0.00 0.00 75 1010.6
20260903192912 81 253 5.2 8.7 0.00 0.00 0.00 76 1010.6
20260903192757 81 223 5.2 7.0 0.00 0.00 0.00 76 1010.5
20260903192726 81 208 5.2 7.0 0.00 0.00 0.00 78 1010.5
20260903192610 81 204 5.2 7.0 0.00 0.00 0.00 78 1010.5
20260903192534 81 209 4.3 7.0 0.00 0.00 0.00 78 1010.6
20260903192418 80 212 3.5 5.2 0.00 0.00 0.00 79 1010.7
20260903192306 80 221 3.5 5.2 0.00 0.00 0.00 79 1010.6
20260903192207 80 238 3.5 5.2 0.00 0.00 0.00 79 1010.6
20260903192112 80 239 2.6 5.2 0.00 0.00 0.00 80 1010.6
20260903192001 79 181 2.6 4.3 0.00 0.00 0.00 79 1010.6
20260903191906 79 179 3.5 4.3 0.00 0.00 0.00 79 1010.5
20260903191831 79 211 2.6 4.3 0.00 0.00 0.00 78 1010.5
20260903191655 79 211 2.6 4.3 0.00 0.00 0.00 79 1010.5
20260903191600 79 211 2.6 4.3 0.00 0.00 0.00 79 1010.5
20260903191505 79 205 2.6 4.3 0.00 0.00 0.00 79 1010.5
20260903191410 79 222 2.6 4.3 0.00 0.00 0.00 79 1010.5
20260903191318 79 225 2.6 4.3 0.00 0.00 0.00 79 1010.5
20260903191156 79 225 1.7 6.1 0.00 0.00 0.00 79 1010.6
20260903191120 79 225 1.7 6.1 0.00 0.00 0.00 79 1010.6
20260903190958 79 225 1.7 6.1 0.00 0.00 0.00 79 1010.6
20260903190902 79 224 2.6 6.1 0.00 0.00 0.00 79 1010.5
20260903190826 79 224 2.6 6.1 0.00 0.00 0.00 79 1010.5
20260903190715 79 250 2.6 6.1 0.00 0.00 0.00 78 1010.5
20260903190559 79 258 1.7 7.0 0.00 0.00 0.00 79 1010.6
20260903190503 79 259 2.6 7.0 0.00 0.00 0.00 78 1010.6
20260903190408 79 257 3.5 7.0 0.00 0.00 0.00 78 1010.6
20260903190313 79 252 2.6 7.0 0.00 0.00 0.00 79 1010.6
20260903190159 79 239 2.6 7.0 0.00 0.00 0.00 78 1010.6
20260903190107 79 240 2.6 7.0 0.00 0.00 0.00 79 1010.6
20260903190012 79 234 3.5 7.0 0.00 0.00 0.00 79 1010.5
20260903185917 79 225 3.5 7.0 0.00 0.00 0.00 78 1010.5
20260903185801 79 240 3.5 7.0 0.00 0.00 0.00 78 1010.5
20260903185702 79 236 3.5 7.0 0.00 0.00 0.00 78 1010.5
20260903185627 80 244 3.5 7.0 0.00 0.00 0.00 78 1010.4
20260903185511 80 225 3.5 7.0 0.00 0.00 0.00 78 1010.4
20260903185359 80 236 4.3 7.0 0.00 0.00 0.00 78 1010.5
20260903185306 80 247 4.3 7.0 0.00 0.00 0.00 77 1010.6
20260903185207 80 236 3.5 6.1 0.00 0.00 0.00 77 1010.6
20260903185131 80 216 3.5 7.8 0.00 0.00 0.00 77 1010.6
20260903184955 80 259 3.5 7.8 0.00 0.00 0.00 77 1010.6
20260903184900 80 251 4.3 8.7 0.00 0.00 0.00 77 1010.6
20260903184809 80 252 3.5 8.7 0.00 0.00 0.00 77 1010.6
20260903184714 80 225 3.5 8.7 0.00 0.00 0.00 78 1010.5
20260903184559 80 246 3.5 8.7 0.00 0.00 0.00 77 1010.6
20260903184504 80 230 4.3 8.7 0.00 0.00 0.00 76 1010.5
20260903184410 80 232 4.3 12.2 0.00 0.00 0.00 75 1010.5
20260903184259 81 252 4.3 12.2 0.00 0.00 0.00 75 1010.6
20260903184223 81 232 5.2 12.2 0.00 0.00 0.00 74 1010.6
20260903184127 81 252 5.2 12.2 0.00 0.00 0.00 74 1010.6
20260903184030 81 254 4.3 12.2 0.00 0.00 0.00 74 1010.6
20260903183915 82 229 4.3 13.0 0.00 0.00 0.00 73 1010.5
20260903183759 82 236 7.0 13.9 0.00 0.00 0.00 72 1010.6
20260903183705 82 253 7.8 13.9 0.00 0.00 0.00 70 1010.6
20260903183608 82 225 7.0 13.9 0.00 0.00 0.00 70 1010.5
20260903183535 83 256 6.1 13.9 0.00 0.00 0.00 71 1010.5
20260903183359 83 229 6.1 13.9 0.00 0.00 0.00 69 1010.7
20260903183323 83 227 7.0 13.9 0.00 0.00 0.00 68 1010.6
20260903183227 84 250 7.8 13.9 0.00 0.00 0.00 67 1010.6
20260903183110 84 241 8.7 13.9 0.00 0.00 0.00 66 1010.6
20260903182956 85 238 7.8 13.9 0.00 0.00 0.00 65 1010.5
20260903182900 85 254 7.8 13.9 0.00 0.00 0.00 65 1010.4
20260903182808 85 220 7.8 12.2 0.00 0.00 0.00 64 1010.4
20260903182713 85 242 8.7 12.2 0.00 0.00 0.00 64 1010.5
20260903182558 85 265 8.7 12.2 0.00 0.00 0.00 63 1010.4
20260903182503 85 240 8.7 12.2 0.00 0.00 0.00 63 1010.5
20260903182427 85 266 7.8 12.2 0.00 0.00 0.00 63 1010.6
20260903182330 86 271 7.8 14.8 0.00 0.00 0.00 62 1010.6
20260903182159 86 260 6.1 14.8 0.00 0.00 0.00 63 1010.6
20260903182103 86 268 5.2 15.6 0.00 0.00 0.00 62 1010.7
20260903182008 86 248 7.0 15.6 0.00 0.00 0.00 62 1010.7
20260903181932 86 264 7.8 15.6 0.00 0.00 0.00 62 1010.8
20260903181756 86 245 7.0 15.6 0.00 0.00 0.00 62 1010.7
20260903181700 87 245 7.0 15.6 0.00 0.00 0.00 62 1010.8
20260903181605 87 275 9.6 15.6 0.00 0.00 0.00 61 1010.7
20260903181514 87 279 10.4 15.6 0.00 0.00 0.00 61 1010.7
20260903181359 87 232 11.3 15.6 0.00 0.00 0.00 60 1010.7
20260903181303 87 221 8.7 13.9 0.00 0.00 0.00 59 1010.7
20260903181207 88 229 7.0 13.9 0.00 0.00 0.00 60 1010.7
20260903181132 88 249 7.8 13.9 0.00 0.00 0.00 60 1010.7
20260903180955 88 242 9.6 13.9 0.00 0.00 0.00 60 1010.6
20260903180904 88 242 10.4 13.9 0.00 0.00 0.00 60 1010.7
20260903180809 88 250 8.7 13.9 0.00 0.00 0.00 60 1010.7
20260903180734 88 234 7.0 13.9 0.00 0.00 0.00 62 1010.6
20260903180557 88 227 7.8 13.9 0.00 0.00 0.00 61 1010.6
20260903180502 87 227 7.8 13.9 0.00 0.00 0.00 60 1010.6
20260903180405 87 229 7.0 13.9 0.00 0.00 0.00 61 1010.6
20260903180310 87 244 8.7 13.9 0.00 0.00 0.00 60 1010.6
20260903180159 87 234 9.6 13.9 0.00 0.00 0.00 60 1010.7
20260903180105 87 220 9.6 13.0 0.00 0.00 0.00 60 1010.7
20260903180029 87 231 8.7 13.0 0.00 0.00 0.00 60 1010.7
20260903175912 87 223 8.7 13.0 0.00 0.00 0.00 62 1010.7
20260903175757 87 235 7.8 13.0 0.00 0.00 0.00 61 1010.8
20260903175702 87 237 6.1 12.2 0.00 0.00 0.00 61 1010.8
20260903175611 87 229 7.8 12.2 0.00 0.00 0.00 60 1010.8
20260903175456 86 244 8.7 12.2 0.00 0.00 0.00 61 1010.8
20260903175401 86 238 7.8 10.4 0.00 0.00 0.00 61 1010.7
20260903175306 86 260 7.8 10.4 0.00 0.00 0.00 60 1010.8
20260903175211 86 214 7.0 10.4 0.00 0.00 0.00 61 1010.8
20260903175100 86 243 6.1 9.6 0.00 0.00 0.00 61 1010.7
20260903175005 86 223 5.2 9.6 0.00 0.00 0.00 62 1010.8
20260903174910 86 219 5.2 10.4 0.00 0.00 0.00 61 1010.8
20260903174815 86 239 5.2 10.4 0.00 0.00 0.00 61 1010.7
20260903174740 86 258 5.2 10.4 0.00 0.00 0.00 61 1010.7
20260903174557 86 225 7.8 10.4 0.00 0.00 0.00 62 1010.7
20260903174502 86 237 7.0 10.4 0.00 0.00 0.00 62 1010.7
20260903174411 86 242 7.0 10.4 0.00 0.00 0.00 62 1010.7
20260903174256 86 225 7.8 10.4 0.00 0.00 0.00 62 1010.7
20260903174222 86 238 7.0 10.4 0.00 0.00 0.00 62 1010.7
20260903174059 85 229 7.0 10.4 0.00 0.00 0.00 62 1010.8
20260903174004 85 247 7.0 12.2 0.00 0.00 0.00 61 1010.8
20260903173909 85 261 7.8 12.2 0.00 0.00 0.00 62 1010.8
20260903173839 85 261 6.1 12.2 0.00 0.00 0.00 63 1010.8
20260903173655 85 252 6.1 12.2 0.00 0.00 0.00 62 1010.8
20260903173600 85 257 7.0 12.2 0.00 0.00 0.00 62 1011.0
20260903173525 85 244 5.2 12.2 0.00 0.00 0.00 63 1010.9
20260903173410 85 257 7.0 12.2 0.00 0.00 0.00 63 1010.9
20260903173314 85 247 7.0 12.2 0.00 0.00 0.00 63 1010.9
20260903173203 85 254 7.0 10.4 0.00 0.00 0.00 64 1011.0
20260903173128 85 248 6.1 10.4 0.00 0.00 0.00 63 1011.1
20260903173011 85 259 6.1 10.4 0.00 0.00 0.00 62 1011.1
20260903172856 85 252 5.2 10.4 0.00 0.00 0.00 63 1011.1
20260903172801 85 272 5.2 10.4 0.00 0.00 0.00 65 1011.1
20260903172726 85 257 6.1 10.4 0.00 0.00 0.00 65 1011.1
20260903172610 85 212 5.2 10.4 0.00 0.00 0.00 65 1011.1
20260903172459 85 258 5.2 10.4 0.00 0.00 0.00 64 1011.1
20260903172404 85 234 6.1 10.4 0.00 0.00 0.00 65 1011.1
20260903172309 84 219 7.0 10.4 0.00 0.00 0.00 65 1011.1
20260903172214 84 227 7.0 10.4 0.00 0.00 0.00 64 1011.1
20260903172120 84 257 6.1 8.7 0.00 0.00 0.00 65 1011.1
20260903172024 84 213 6.1 8.7 0.00 0.00 0.00 64 1011.0
20260903171907 84 215 5.2 9.6 0.00 0.00 0.00 66 1011.0
20260903171835 84 259 5.2 8.7 0.00 0.00 0.00 66 1011.1
20260903171739 84 222 5.2 8.7 0.00 0.00 0.00 66 1011.2
20260903171556 84 223 5.2 8.7 0.00 0.00 0.00 65 1011.1
20260903171500 84 224 6.1 8.7 0.00 0.00 0.00 66 1011.2
20260903171406 84 286 6.1 9.6 0.00 0.00 0.00 66 1011.2
20260903171310 84 227 7.0 9.6 0.00 0.00 0.00 65 1011.2
20260903171159 84 223 7.0 9.6 0.00 0.00 0.00 65 1011.2
20260903171123 84 279 7.0 9.6 0.00 0.00 0.00 65 1011.2
20260903171027 84 245 6.1 8.7 0.00 0.00 0.00 65 1011.2
20260903170911 84 236 6.1 9.6 0.00 0.00 0.00 66 1011.2
20260903170816 84 229 7.0 9.6 0.00 0.00 0.00 65 1011.2
20260903170720 84 245 7.0 9.6 0.00 0.00 0.00 65 1011.3
20260903170604 84 247 7.0 9.6 0.00 0.00 0.00 64 1011.2
20260903170508 84 229 7.0 9.6 0.00 0.00 0.00 63 1011.2
20260903170418 84 211 7.0 8.7 0.00 0.00 0.00 64 1011.2
20260903170255 85 200 6.1 9.6 0.00 0.00 0.00 64 1011.2
20260903170221 85 229 7.0 9.6 0.00 0.00 0.00 64 1011.3
20260903170104 85 236 7.0 9.6 0.00 0.00 0.00 63 1011.3
20260903170010 85 243 7.0 9.6 0.00 0.00 0.00 63 1011.3
20260903165914 85 227 6.1 9.6 0.00 0.00 0.00 63 1011.3
20260903165802 85 259 6.1 9.6 0.00 0.00 0.00 64 1011.3
20260903165728 85 232 5.2 9.6 0.00 0.00 0.00 64 1011.3
20260903165631 85 216 4.3 9.6 0.00 0.00 0.00 65 1011.4
20260903165514 85 269 5.2 12.2 0.00 0.00 0.00 65 1011.4
20260903165358 85 239 6.1 12.2 0.00 0.00 0.00 64 1011.4
20260903165323 85 266 7.0 12.2 0.00 0.00 0.00 64 1011.4
20260903165228 85 254 6.1 12.2 0.00 0.00 0.00 65 1011.4
20260903165133 85 234 4.3 12.2 0.00 0.00 0.00 64 1011.4
20260903165000 84 238 4.3 12.2 0.00 0.00 0.00 65 1011.4
20260903164905 84 245 7.0 12.2 0.00 0.00 0.00 64 1011.4
20260903164830 84 215 7.0 12.2 0.00 0.00 0.00 63 1011.4
20260903164714 85 259 7.0 12.2 0.00 0.00 0.00 64 1011.5
20260903164559 85 235 7.8 12.2 0.00 0.00 0.00 64 1011.5
20260903164503 85 253 6.1 10.4 0.00 0.00 0.00 64 1011.4
20260903164406 85 281 6.1 8.7 0.00 0.00 0.00 64 1011.4
20260903164255 84 221 5.2 8.7 0.00 0.00 0.00 64 1011.4
20260903164200 84 218 5.2 8.7 0.00 0.00 0.00 65 1011.4
20260903164105 84 288 4.3 9.6 0.00 0.00 0.00 64 1011.4
20260903164010 84 274 3.5 9.6 0.00 0.00 0.00 64 1011.4
20260903163915 84 261 3.5 9.6 0.00 0.00 0.00 64 1011.4
20260903163803 84 277 5.2 9.6 0.00 0.00 0.00 65 1011.4
20260903163708 84 319 5.2 9.6 0.00 0.00 0.00 64 1011.4
20260903163613 84 252 6.1 9.6 0.00 0.00 0.00 64 1011.4
20260903163538 84 238 6.1 9.6 0.00 0.00 0.00 64 1011.4
20260903163355 84 254 7.0 12.2 0.00 0.00 0.00 64 1011.3
20260903163321 84 267 7.0 12.2 0.00 0.00 0.00 64 1011.3
20260903163159 84 250 7.0 12.2 0.00 0.00 0.00 63 1011.4
20260903163107 84 249 6.1 12.2 0.00 0.00 0.00 64 1011.4
20260903163011 84 252 6.1 12.2 0.00 0.00 0.00 64 1011.3
20260903162856 84 249 6.1 12.2 0.00 0.00 0.00 64 1011.4
20260903162801 84 236 7.0 12.2 0.00 0.00 0.00 64 1011.4
20260903162706 84 260 7.8 12.2 0.00 0.00 0.00 63 1011.4
20260903162631 84 225 7.8 12.2 0.00 0.00 0.00 63 1011.4
20260903162520 84 246 7.8 11.3 0.00 0.00 0.00 63 1011.4
20260903162357 84 222 7.0 11.3 0.00 0.00 0.00 64 1011.4
20260903162321 84 238 6.1 13.0 0.00 0.00 0.00 64 1011.4
20260903162204 84 227 5.2 13.0 0.00 0.00 0.00 64 1011.4
20260903162108 84 236 6.1 13.0 0.00 0.00 0.00 64 1011.4
20260903162033 84 222 7.8 13.0 0.00 0.00 0.00 64 1011.4
20260903161810 84 254 7.8 13.0 0.00 0.00 0.00 64 1011.4
20260903161720 84 252 7.8 13.0 0.00 0.00 0.00 64 1011.3
20260903161558 84 217 7.0 13.0 0.00 0.00 0.00 64 1011.3
20260903161502 84 234 7.8 13.0 0.00 0.00 0.00 64 1011.3
20260903161407 84 243 8.7 13.0 0.00 0.00 0.00 63 1011.3
20260903161312 84 244 7.8 13.0 0.00 0.00 0.00 64 1011.4
20260903161200 84 255 8.7 13.0 0.00 0.00 0.00 64 1011.4
20260903161105 84 254 8.7 12.2 0.00 0.00 0.00 65 1011.5
20260903161030 84 209 7.8 12.2 0.00 0.00 0.00 66 1011.5
20260903160934 84 259 8.7 12.2 0.00 0.00 0.00 65 1011.5
20260903160758 84 229 7.8 12.2 0.00 0.00 0.00 65 1011.4
20260903160703 84 232 7.8 12.2 0.00 0.00 0.00 67 1011.5
20260903160607 83 250 7.0 12.2 0.00 0.00 0.00 67 1011.5
20260903160531 83 238 6.1 12.2 0.00 0.00 0.00 68 1011.5
20260903160439 83 229 6.1 12.2 0.00 0.00 0.00 67 1011.6
20260903160255 83 262 7.0 12.2 0.00 0.00 0.00 67 1011.5
20260903160220 83 233 7.0 12.2 0.00 0.00 0.00 68 1011.5
20260903160058 83 222 7.8 12.2 0.00 0.00 0.00 68 1011.5
20260903160001 83 261 7.0 11.3 0.00 0.00 0.00 68 1011.6
20260903155906 83 261 6.1 11.3 0.00 0.00 0.00 68 1011.6
20260903155814 82 221 6.1 11.3 0.00 0.00 0.00 69 1011.6
20260903155719 82 265 7.0 11.3 0.00 0.00 0.00 69 1011.6
20260903155556 82 246 6.1 11.3 0.00 0.00 0.00 70 1011.5
20260903155520 82 285 4.3 7.8 0.00 0.00 0.00 71 1011.6
20260903155404 82 241 5.2 7.8 0.00 0.00 0.00 70 1011.5
20260903155329 82 246 6.1 7.8 0.00 0.00 0.00 69 1011.5
20260903155213 82 279 6.1 7.8 0.00 0.00 0.00 69 1011.4
20260903155103 82 263 5.2 7.8 0.00 0.00 0.00 70 1011.4
20260903155027 82 253 4.3 7.8 0.00 0.00 0.00 69 1011.5
20260903154910 82 250 3.5 8.7 0.00 0.00 0.00 70 1011.5
20260903154814 82 264 3.5 8.7 0.00 0.00 0.00 70 1011.4
20260903154740 82 262 4.3 8.7 0.00 0.00 0.00 70 1011.4
20260903154558 82 221 4.3 9.6 0.00 0.00 0.00 69 1011.4
20260903154502 82 250 5.2 9.6 0.00 0.00 0.00 69 1011.4
20260903154411 82 261 6.1 9.6 0.00 0.00 0.00 69 1011.4
20260903154336 82 275 6.1 9.6 0.00 0.00 0.00 69 1011.4
20260903154241 82 274 7.0 9.6 0.00 0.00 0.00 69 1011.4
20260903154057 82 242 7.0 9.6 0.00 0.00 0.00 68 1011.3
20260903154002 82 225 6.1 9.6 0.00 0.00 0.00 69 1011.2
20260903153907 82 205 7.0 9.6 0.00 0.00 0.00 67 1011.2
20260903153755 82 207 7.8 9.6 0.00 0.00 0.00 67 1011.4
20260903153700 83 234 7.8 10.4 0.00 0.00 0.00 68 1011.3
20260903153604 83 235 7.0 10.4 0.00 0.00 0.00 68 1011.3
20260903153509 83 254 6.1 10.4 0.00 0.00 0.00 69 1011.3
20260903153414 83 223 4.3 10.4 0.00 0.00 0.00 70 1011.4
20260903153258 82 209 4.3 10.4 0.00 0.00 0.00 69 1011.4
20260903153207 82 230 5.2 10.4 0.00 0.00 0.00 69 1011.4
20260903153111 82 245 5.2 10.4 0.00 0.00 0.00 70 1011.4
20260903152956 82 248 7.0 10.4 0.00 0.00 0.00 70 1011.3
20260903152901 82 231 6.1 10.4 0.00 0.00 0.00 69 1011.4
20260903152804 82 292 6.1 10.4 0.00 0.00 0.00 70 1011.4
20260903152709 82 306 5.2 10.4 0.00 0.00 0.00 71 1011.4
20260903152557 82 230 7.0 10.4 0.00 0.00 0.00 70 1011.4
20260903152522 82 236 7.0 10.4 0.00 0.00 0.00 70 1011.4
20260903152359 82 232 5.2 9.6 0.00 0.00 0.00 71 1011.5
20260903152306 82 231 4.3 8.7 0.00 0.00 0.00 72 1011.4
20260903152207 82 265 5.2 8.7 0.00 0.00 0.00 71 1011.4
20260903152112 82 224 6.1 8.7 0.00 0.00 0.00 71 1011.3
20260903152001 82 259 6.1 8.7 0.00 0.00 0.00 71 1011.3
20260903151906 82 236 6.1 8.7 0.00 0.00 0.00 71 1011.3
20260903151811 82 236 6.1 8.7 0.00 0.00 0.00 70 1011.4
20260903151656 81 218 5.2 8.7 0.00 0.00 0.00 71 1011.3
20260903151601 81 242 5.2 8.7 0.00 0.00 0.00 71 1011.3
20260903151505 81 284 6.1 8.7 0.00 0.00 0.00 72 1011.3
20260903151413 81 298 6.1 8.7 0.00 0.00 0.00 72 1011.3
20260903151318 81 274 6.1 8.7 0.00 0.00 0.00 72 1011.3
20260903151155 81 221 6.1 9.6 0.00 0.00 0.00 72 1011.3
20260903151059 81 221 6.1 9.6 0.00 0.00 0.00 73 1011.3
20260903151004 81 208 6.1 9.6 0.00 0.00 0.00 73 1011.3
20260903150908 80 235 7.0 9.6 0.00 0.00 0.00 72 1011.3
20260903150756 80 244 7.0 9.6 0.00 0.00 0.00 72 1011.3
20260903150701 80 230 5.2 9.6 0.00 0.00 0.00 73 1011.3
20260903150606 80 237 5.2 7.8 0.00 0.00 0.00 73 1011.3
20260903150512 80 246 5.2 7.8 0.00 0.00 0.00 73 1011.3
20260903150356 80 256 6.1 7.8 0.00 0.00 0.00 73 1011.3
20260903150321 80 234 5.2 7.8 0.00 0.00 0.00 75 1011.3
20260903150228 80 260 3.5 9.6 0.00 0.00 0.00 74 1011.2
20260903150111 80 255 3.5 9.6 0.00 0.00 0.00 75 1011.2
20260903150016 80 245 4.3 9.6 0.00 0.00 0.00 75 1011.3
20260903145921 80 240 5.2 9.6 0.00 0.00 0.00 75 1011.4
20260903145804 80 246 4.3 9.6 0.00 0.00 0.00 75 1011.4
20260903145709 79 232 4.3 9.6 0.00 0.00 0.00 75 1011.4
20260903145614 79 217 6.1 9.6 0.00 0.00 0.00 75 1011.4
20260903145523 79 217 7.0 9.6 0.00 0.00 0.00 75 1011.3
20260903145407 79 246 5.2 9.6 0.00 0.00 0.00 75 1011.3
20260903145312 79 242 3.5 8.7 0.00 0.00 0.00 76 1011.3
20260903145156 79 207 4.3 8.7 0.00 0.00 0.00 75 1011.3
20260903145101 79 242 5.2 8.7 0.00 0.00 0.00 75 1011.4
20260903145006 79 232 7.0 8.7 0.00 0.00 0.00 75 1011.4
20260903144855 79 246 7.0 8.7 0.00 0.00 0.00 75 1011.3
20260903144800 79 224 7.0 8.7 0.00 0.00 0.00 75 1011.3
20260903144705 79 219 5.2 8.7 0.00 0.00 0.00 75 1011.3
20260903144609 79 239 4.3 8.7 0.00 0.00 0.00 76 1011.3
20260903144513 79 239 4.3 8.7 0.00 0.00 0.00 76 1011.4
20260903144359 79 242 6.1 8.7 0.00 0.00 0.00 76 1011.4
20260903144307 79 249 6.1 8.7 0.00 0.00 0.00 76 1011.4
20260903144210 79 244 5.2 8.7 0.00 0.00 0.00 76 1011.3
20260903144115 79 225 5.2 8.7 0.00 0.00 0.00 77 1011.3
20260903144041 79 232 5.2 8.7 0.00 0.00 0.00 78 1011.4
20260903143857 78 205 4.3 8.7 0.00 0.00 0.00 78 1011.4
20260903143802 78 182 4.3 8.7 0.00 0.00 0.00 78 1011.4
20260903143707 78 217 5.2 8.7 0.00 0.00 0.00 78 1011.4
20260903143556 78 223 4.3 8.7 0.00 0.00 0.00 79 1011.4
20260903143520 78 227 3.5 8.7 0.00 0.00 0.00 80 1011.4
20260903143357 78 229 3.5 8.7 0.00 0.00 0.00 80 1011.4
20260903143302 77 259 4.3 8.7 0.00 0.00 0.00 81 1011.5
20260903143208 77 233 3.5 6.1 0.00 0.00 0.00 81 1011.5
20260903143056 77 246 3.5 6.1 0.00 0.00 0.00 82 1011.5
20260903143020 77 244 3.5 6.1 0.00 0.00 0.00 82 1011.5
20260903142857 77 230 5.2 6.1 0.00 0.00 0.00 82 1011.4
20260903142803 77 261 4.3 7.0 0.00 0.00 0.00 82 1011.5
20260903142707 77 236 3.5 7.0 0.00 0.00 0.00 83 1011.5
20260903142632 77 225 3.5 6.1 0.00 0.00 0.00 83 1011.4
20260903142456 77 224 3.5 6.1 0.00 0.00 0.00 83 1011.5
20260903142406 77 217 3.5 6.1 0.00 0.00 0.00 83 1011.6
20260903142330 77 217 4.3 6.1 0.00 0.00 0.00 83 1011.6
20260903142214 77 225 3.5 7.8 0.00 0.00 0.00 83 1011.5
20260903142141 77 232 2.6 7.8 0.00 0.00 0.00 84 1011.6
20260903141957 77 244 2.6 7.8 0.00 0.00 0.00 83 1011.6
20260903141922 77 244 3.5 7.8 0.00 0.00 0.00 84 1011.6
20260903141759 77 222 3.5 7.8 0.00 0.00 0.00 83 1011.5
20260903141708 77 211 3.5 7.8 0.00 0.00 0.00 83 1011.5
20260903141613 77 231 3.5 7.8 0.00 0.00 0.00 83 1011.6
20260903141518 77 232 4.3 7.8 0.00 0.00 0.00 83 1011.5
20260903141402 77 246 4.3 7.0 0.00 0.00 0.00 83 1011.5
20260903141327 77 219 4.3 7.0 0.00 0.00 0.00 83 1011.4
20260903141210 77 237 5.2 7.0 0.00 0.00 0.00 83 1011.4
20260903141134 77 209 5.2 7.0 0.00 0.00 0.00 83 1011.4
20260903141002 77 204 5.2 7.0 0.00 0.00 0.00 84 1011.5
20260903140927 77 221 5.2 7.0 0.00 0.00 0.00 84 1011.5
20260903140811 76 214 4.3 7.0 0.00 0.00 0.00 84 1011.5
20260903140716 76 215 4.3 7.0 0.00 0.00 0.00 85 1011.4
20260903140620 76 211 4.3 7.0 0.00 0.00 0.00 85 1011.4
20260903140456 76 215 3.5 6.1 0.00 0.00 0.00 85 1011.4
20260903140421 76 198 3.5 6.1 0.00 0.00 0.00 86 1011.4
20260903140324 76 192 4.3 6.1 0.00 0.00 0.00 85 1011.5
20260903140212 76 200 4.3 6.1 0.00 0.00 0.00 86 1011.5
20260903140138 76 194 4.3 6.1 0.00 0.00 0.00 86 1011.5
20260903135955 76 215 4.3 6.1 0.00 0.00 0.00 86 1011.5
20260903135920 75 210 4.3 6.1 0.00 0.00 0.00 86 1011.5
20260903135757 75 207 4.3 6.1 0.00 0.00 0.00 86 1011.6
20260903135702 75 194 4.3 6.1 0.00 0.00 0.00 86 1011.7
20260903135611 75 214 3.5 6.1 0.00 0.00 0.00 86 1011.7
20260903135536 75 229 4.3 6.1 0.00 0.00 0.00 87 1011.6
20260903135440 75 234 4.3 6.1 0.00 0.00 0.00 87 1011.7
20260903135257 75 205 4.3 6.1 0.00 0.00 0.00 87 1011.7
20260903135201 75 197 3.5 5.2 0.00 0.00 0.00 87 1011.6
20260903135106 75 184 4.3 6.1 0.00 0.00 0.00 88 1011.6
20260903135011 75 184 4.3 6.1 0.00 0.00 0.00 87 1011.7
20260903134920 75 176 4.3 6.1 0.00 0.00 0.00 88 1011.7
20260903134803 74 184 3.5 6.1 0.00 0.00 0.00 88 1011.7
20260903134709 74 213 3.5 6.1 0.00 0.00 0.00 88 1011.7
20260903134613 74 188 3.5 6.1 0.00 0.00 0.00 89 1011.8
20260903134518 74 190 4.3 6.1 0.00 0.00 0.00 89 1011.7
20260903134421 74 184 4.3 6.1 0.00 0.00 0.00 89 1011.7
20260903134259 74 190 3.5 7.0 0.00 0.00 0.00 89 1011.7
20260903134209 74 188 3.5 7.0 0.00 0.00 0.00 89 1011.7
20260903134113 74 178 3.5 7.0 0.00 0.00 0.00 89 1011.7
20260903133958 73 194 3.5 7.0 0.00 0.00 0.00 90 1011.7
20260903133923 73 198 3.5 7.0 0.00 0.00 0.00 90 1011.6
20260903133826 73 197 3.5 7.0 0.00 0.00 0.00 90 1011.7
20260903133710 73 197 4.3 7.0 0.00 0.00 0.00 90 1011.7
20260903133559 73 213 4.3 7.0 0.00 0.00 0.00 90 1011.6
20260903133505 73 175 3.5 7.0 0.00 0.00 0.00 91 1011.7
20260903133409 73 201 2.6 7.0 0.00 0.00 0.00 90 1011.7
20260903133312 72 201 3.5 7.0 0.00 0.00 0.00 90 1011.7
20260903133217 72 196 4.3 7.0 0.00 0.00 0.00 90 1011.7
20260903133121 72 199 4.3 7.0 0.00 0.00 0.00 90 1011.7
20260903133004 72 192 4.3 7.0 0.00 0.00 0.00 90 1011.7
20260903132908 72 192 4.3 7.0 0.00 0.00 0.00 90 1011.7
20260903132817 72 186 4.3 6.1 0.00 0.00 0.00 90 1011.7
20260903132655 72 184 4.3 6.1 0.00 0.00 0.00 90 1011.8
20260903132600 72 190 4.3 6.1 0.00 0.00 0.00 90 1011.8
20260903132505 72 183 4.3 5.2 0.00 0.00 0.00 90 1011.8
20260903132410 72 173 2.6 4.3 0.00 0.00 0.00 90 1011.8
20260903132335 72 172 1.7 5.2 0.00 0.00 0.00 90 1011.9
20260903132204 72 172 1.7 5.2 0.00 0.00 0.00 90 1011.9
20260903132108 72 172 2.6 5.2 0.00 0.00 0.00 90 1011.9
20260903132013 72 172 1.7 5.2 0.00 0.00 0.00 90 1011.9
20260903131918 72 165 3.5 5.2 0.00 0.00 0.00 90 1011.9
20260903131802 72 165 3.5 5.2 0.00 0.00 0.00 90 1011.9
20260903131726 72 161 2.6 5.2 0.00 0.00 0.00 90 1011.9
20260903131610 72 161 2.6 5.2 0.00 0.00 0.00 90 1011.9
20260903131517 72 162 2.6 5.2 0.00 0.00 0.00 90 1011.9
20260903131420 72 162 3.5 5.2 0.00 0.00 0.00 90 1011.9
20260903131257 72 160 3.5 5.2 0.00 0.00 0.00 90 1011.8
20260903131202 72 178 2.6 4.3 0.00 0.00 0.00 90 1011.8
20260903131107 72 182 2.6 4.3 0.00 0.00 0.00 90 1011.8
20260903131012 72 181 2.6 4.3 0.00 0.00 0.00 90 1011.9
20260903130902 72 181 2.6 4.3 0.00 0.00 0.00 90 1011.8
20260903130806 72 181 2.6 4.3 0.00 0.00 0.00 90 1011.8
20260903130711 72 181 2.6 4.3 0.00 0.00 0.00 90 1011.7
20260903130556 72 181 3.5 4.3 0.00 0.00 0.00 90 1011.7
20260903130500 72 188 3.5 4.3 0.00 0.00 0.00 90 1011.7
20260903130406 72 183 2.6 5.2 0.00 0.00 0.00 90 1011.7
20260903130313 72 159 1.7 5.2 0.00 0.00 0.00 90 1011.7
20260903130159 72 158 2.6 5.2 0.00 0.00 0.00 90 1011.7
20260903130007 72 173 2.6 5.2 0.00 0.00 0.00 90 1011.6
20260903125912 72 174 2.6 5.2 0.00 0.00 0.00 90 1011.7
20260903125800 71 173 1.7 5.2 0.00 0.00 0.00 90 1011.7
20260903125705 71 182 1.7 5.2 0.00 0.00 0.00 90 1011.7
20260903125611 71 182 2.6 5.2 0.00 0.00 0.00 90 1011.7
20260903125515 71 182 3.5 5.2 0.00 0.00 0.00 90 1011.7
20260903125417 71 183 2.6 5.2 0.00 0.00 0.00 90 1011.8
20260903125305 71 162 2.6 5.2 0.00 0.00 0.00 90 1011.8
20260903125226 71 161 3.5 5.2 0.00 0.00 0.00 90 1011.8
20260903125130 71 161 2.6 5.2 0.00 0.00 0.00 90 1011.8
20260903124958 71 163 1.7 5.2 0.00 0.00 0.00 90 1011.8
20260903124903 71 169 1.7 5.2 0.00 0.00 0.00 90 1011.8
20260903124803 71 169 2.6 5.2 0.00 0.00 0.00 90 1011.8
20260903124728 71 165 2.6 6.1 0.00 0.00 0.00 91 1011.8
20260903124611 71 165 3.5 7.0 0.00 0.00 0.00 91 1011.7
20260903124516 71 165 2.6 7.0 0.00 0.00 0.00 91 1011.8
20260903124405 71 178 2.6 7.0 0.00 0.00 0.00 91 1011.7
20260903124309 71 187 3.5 7.0 0.00 0.00 0.00 91 1011.7
20260903124214 71 185 3.5 7.0 0.00 0.00 0.00 90 1011.7
20260903124119 71 190 3.5 7.0 0.00 0.00 0.00 90 1011.7
20260903123956 71 175 4.3 7.0 0.00 0.00 0.00 90 1011.7
20260903123901 71 167 4.3 7.0 0.00 0.00 0.00 90 1011.7
20260903123826 71 180 4.3 7.0 0.00 0.00 0.00 90 1011.6
20260903123714 71 186 3.5 5.2 0.00 0.00 0.00 90 1011.6
20260903123618 71 185 3.5 5.2 0.00 0.00 0.00 90 1011.6
20260903123455 71 168 2.6 5.2 0.00 0.00 0.00 90 1011.5
20260903123400 71 162 2.6 5.2 0.00 0.00 0.00 90 1011.4
20260903123305 71 161 2.6 5.2 0.00 0.00 0.00 90 1011.4
20260903123210 71 161 2.6 5.2 0.00 0.00 0.00 91 1011.4
20260903123119 71 160 2.6 5.2 0.00 0.00 0.00 91 1011.4
20260903123003 71 160 2.6 5.2 0.00 0.00 0.00 91 1011.4
20260903122909 71 161 2.6 5.2 0.00 0.00 0.00 91 1011.4
20260903122813 71 163 2.6 5.2 0.00 0.00 0.00 91 1011.4
20260903122658 71 184 2.6 4.3 0.00 0.00 0.00 91 1011.5
20260903122603 71 184 2.6 4.3 0.00 0.00 0.00 91 1011.6
20260903122531 71 184 2.6 4.3 0.00 0.00 0.00 91 1011.6
20260903122414 71 172 1.7 4.3 0.00 0.00 0.00 91 1011.6
20260903122319 71 172 2.6 4.3 0.00 0.00 0.00 91 1011.7
20260903122156 71 174 2.6 4.3 0.00 0.00 0.00 91 1011.7
20260903122101 71 175 3.5 4.3 0.00 0.00 0.00 91 1011.7
20260903122006 71 175 2.6 4.3 0.00 0.00 0.00 91 1011.7
20260903121915 71 175 1.7 5.2 0.00 0.00 0.00 91 1011.7
20260903121839 71 169 0.9 4.3 0.00 0.00 0.00 91 1011.7
20260903121742 71 169 0.9 4.3 0.00 0.00 0.00 91 1011.7
20260903121559 71 169 1.7 4.3 0.00 0.00 0.00 91 1011.7
20260903121504 71 169 3.5 4.3 0.00 0.00 0.00 91 1011.6
20260903121409 71 169 3.5 4.3 0.00 0.00 0.00 91 1011.6
20260903121334 71 166 3.5 5.2 0.00 0.00 0.00 91 1011.7
20260903121202 71 168 2.6 4.3 0.00 0.00 0.00 91 1011.7
20260903121107 71 168 3.5 4.3 0.00 0.00 0.00 91 1011.7
20260903121012 71 165 2.6 4.3 0.00 0.00 0.00 91 1011.8
20260903120918 71 165 1.7 4.3 0.00 0.00 0.00 91 1011.8
20260903120820 71 165 1.7 5.2 0.00 0.00 0.00 91 1011.8
20260903120657 70 165 1.7 5.2 0.00 0.00 0.00 90 1011.7
20260903120602 70 165 2.6 5.2 0.00 0.00 0.00 90 1011.5
20260903120511 71 165 3.5 5.2 0.00 0.00 0.00 91 1011.5
20260903120435 70 165 3.5 5.2 0.00 0.00 0.00 91 1011.6
20260903120319 70 164 2.6 5.2 0.00 0.00 0.00 91 1011.7
20260903120156 70 163 1.7 5.2 0.00 0.00 0.00 90 1011.6
20260903120121 70 163 1.7 5.2 0.00 0.00 0.00 90 1011.6
20260903115959 70 163 1.7 5.2 0.00 0.00 0.00 91 1011.5
20260903115909 70 162 1.7 5.2 0.00 0.00 0.00 91 1011.5
20260903115813 70 179 1.7 4.3 0.00 0.00 0.00 91 1011.6
20260903115658 70 179 2.6 4.3 0.00 0.00 0.00 90 1011.7
20260903115602 70 178 2.6 4.3 0.00 0.00 0.00 90 1011.5
20260903115507 70 177 2.6 3.5 0.00 0.00 0.00 90 1011.5
20260903115412 70 173 2.6 3.5 0.00 0.00 0.00 90 1011.5
20260903115305 70 173 2.6 3.5 0.00 0.00 0.00 90 1011.5
20260903115207 70 173 2.6 4.3 0.00 0.00 0.00 90 1011.5
20260903115111 70 173 2.6 3.5 0.00 0.00 0.00 90 1011.5
20260903114956 70 173 1.7 4.3 0.00 0.00 0.00 90 1011.4
20260903114901 70 173 1.7 3.5 0.00 0.00 0.00 90 1011.4
20260903114806 70 173 1.7 3.5 0.00 0.00 0.00 90 1011.5
20260903114734 70 173 1.7 3.5 0.00 0.00 0.00 90 1011.5
20260903114618 70 173 1.7 3.5 0.00 0.00 0.00 90 1011.6
20260903114543 70 173 1.7 3.5 0.00 0.00 0.00 90 1011.6
20260903114359 70 173 1.7 3.5 0.00 0.00 0.00 90 1011.5
20260903114304 70 173 1.7 3.5 0.00 0.00 0.00 90 1011.4
20260903114209 70 173 2.6 3.5 0.00 0.00 0.00 90 1011.4
20260903114058 70 165 2.6 6.1 0.00 0.00 0.00 90 1011.4
20260903114002 70 164 1.7 6.1 0.00 0.00 0.00 90 1011.4
20260903113907 70 163 1.7 6.1 0.00 0.00 0.00 90 1011.4
20260903113833 70 163 1.7 6.1 0.00 0.00 0.00 90 1011.4
20260903113656 70 163 2.6 6.1 0.00 0.00 0.00 90 1011.4
20260903113621 70 163 2.6 6.1 0.00 0.00 0.00 90 1011.4
20260903113459 70 162 3.5 6.1 0.00 0.00 0.00 90 1011.3
20260903113407 70 161 4.3 6.1 0.00 0.00 0.00 90 1011.3
20260903113312 70 155 4.3 6.1 0.00 0.00 0.00 90 1011.4
20260903113217 71 165 3.5 5.2 0.00 0.00 0.00 90 1011.4
20260903113121 71 167 2.6 5.2 0.00 0.00 0.00 90 1011.4
20260903112959 70 167 2.6 5.2 0.00 0.00 0.00 90 1011.6
20260903112904 70 167 2.6 5.2 0.00 0.00 0.00 90 1011.4
20260903112812 71 167 1.7 5.2 0.00 0.00 0.00 90 1011.4
20260903112717 70 174 1.7 5.2 0.00 0.00 0.00 90 1011.5
20260903112642 70 174 2.6 5.2 0.00 0.00 0.00 90 1011.4
20260903112459 70 174 2.6 5.2 0.00 0.00 0.00 90 1011.4
20260903112404 71 167 2.6 5.2 0.00 0.00 0.00 90 1011.4
20260903112310 71 178 2.6 5.2 0.00 0.00 0.00 90 1011.4
20260903112158 71 178 2.6 5.2 0.00 0.00 0.00 90 1011.3
20260903112100 70 181 3.5 5.2 0.00 0.00 0.00 90 1011.3
20260903112005 70 188 3.5 5.2 0.00 0.00 0.00 90 1011.4
20260903111910 71 192 3.5 5.2 0.00 0.00 0.00 90 1011.4
20260903111814 71 176 3.5 7.0 0.00 0.00 0.00 90 1011.3
20260903111659 71 168 3.5 7.0 0.00 0.00 0.00 90 1011.3
20260903111608 71 169 3.5 7.0 0.00 0.00 0.00 90 1011.3
20260903111512 70 173 2.6 7.0 0.00 0.00 0.00 90 1011.4
20260903111436 71 173 3.5 7.0 0.00 0.00 0.00 90 1011.3
20260903111320 70 180 4.3 7.0 0.00 0.00 0.00 90 1011.4
20260903111203 70 178 4.3 7.0 0.00 0.00 0.00 90 1011.4
20260903111128 70 195 5.2 7.0 0.00 0.00 0.00 90 1011.4
20260903111012 70 196 4.3 7.0 0.00 0.00 0.00 90 1011.5
20260903110856 70 195 3.5 5.2 0.00 0.00 0.00 90 1011.6
20260903110804 70 198 3.5 5.2 0.00 0.00 0.00 90 1011.5
20260903110709 70 199 3.5 5.2 0.00 0.00 0.00 90 1011.5
20260903110615 70 199 3.5 5.2 0.00 0.00 0.00 91 1011.6
20260903110539 70 200 4.3 5.2 0.00 0.00 0.00 91 1011.6
20260903110355 70 176 4.3 5.2 0.00 0.00 0.00 91 1011.7